GFSNE_850_thetae_000.txt.gz
Theta_e
331 332 333 330 329 330 332 332 331 329 327 327 327 327 328 327 328 327 327 326 321 320 317 317 317 317 317 318 318 318 318 319 322 332 334 335 341 340
328 330 332 330 330 331 331 330 329 329 329 327 327 327 329 329 329 328 328 321 320 320 317 317 317 317 317 317 319 318 318 318 319 321 331 335 336 340
330 332 334 335 332 329 329 329 329 328 328 327 327 327 329 329 329 329 328 328 327 325 323 319 316 317 316 317 319 317 318 318 318 319 321 330 336 336
332 334 334 333 333 333 331 332 330 329 329 328 327 328 327 327 328 329 328 326 326 325 324 321 321 316 316 318 317 316 318 319 319 319 319 322 331 336
333 334 334 334 333 332 331 329 329 328 328 328 328 328 327 326 326 325 327 325 326 325 324 324 322 321 321 320 320 320 318 317 320 320 319 319 323 333
333 334 334 335 333 333 331 332 332 330 328 328 327 327 326 325 325 325 325 324 323 324 324 322 321 322 322 322 322 321 320 320 321 321 320 320 321 325
334 335 335 335 332 328 329 329 327 328 327 327 326 326 324 325 326 325 325 325 323 324 323 322 320 322 324 323 322 321 321 320 319 319 323 321 320 323
336 336 330 327 329 328 328 327 327 326 324 325 326 325 326 327 326 325 325 324 324 323 323 320 323 323 323 322 321 320 319 319 320 319 320 324 322 322
334 327 327 329 331 330 330 328 327 326 324 324 326 327 326 326 325 324 324 324 322 320 322 323 323 322 321 321 319 319 320 320 319 320 320 321 325 326
330 329 328 329 328 328 329 327 327 326 328 327 325 323 323 322 319 319 320 320 319 321 322 323 321 320 319 319 319 319 319 320 321 321 321 322 322 326
327 326 327 325 327 327 326 325 327 326 325 324 321 317 316 315 314 316 320 321 320 320 320 321 319 319 319 318 319 319 321 323 323 323 322 322 322 325
326 326 326 325 327 326 326 326 326 325 324 320 319 320 318 319 318 319 318 318 319 318 317 319 318 318 318 318 319 320 322 324 325 327 324 323 323 325
325 327 327 324 327 326 324 322 323 319 315 315 319 317 315 317 317 317 317 315 314 314 315 318 318 317 317 317 318 320 323 326 326 326 328 325 324 326
327 329 328 325 324 323 321 321 319 316 316 319 318 314 315 315 314 313 312 311 310 312 316 319 317 318 317 317 318 322 325 326 328 331 331 326 325 328
329 324 324 323 321 320 320 319 317 317 318 317 314 313 313 313 312 311 310 307 310 316 319 318 317 317 318 318 319 323 324 327 329 334 333 331 327 333
322 322 322 320 319 318 318 317 316 316 315 312 312 312 311 311 310 308 306 307 315 318 319 318 317 317 318 321 323 325 326 328 331 334 333 335 335 336
323 321 321 320 320 319 318 316 315 313 312 312 311 310 309 307 306 305 305 311 316 317 318 318 317 316 318 320 322 321 324 328 331 333 334 335 336 338
320 320 319 319 318 318 316 314 312 311 310 309 308 308 306 305 304 304 306 311 315 317 317 318 318 318 317 318 319 319 321 325 330 331 335 336 335 337
317 318 317 317 316 314 312 311 310 309 307 306 306 305 304 304 304 304 306 309 313 315 317 318 317 317 315 316 317 317 317 321 328 330 333 334 337 336
317 316 316 314 312 311 310 309 308 306 305 304 304 303 303 303 303 304 305 308 311 314 316 317 318 317 317 316 315 315 316 318 323 330 332 333 333 335
315 313 312 311 310 309 309 307 305 303 301 302 303 303 302 302 303 303 304 306 311 314 314 316 317 317 317 316 315 314 316 317 317 324 331 330 332 335
313 312 311 310 309 308 306 304 301 301 302 302 302 302 302 302 302 303 304 305 310 312 313 314 315 315 316 316 315 315 313 316 316 317 320 330 331 334
313 312 311 309 308 305 302 300 300 301 301 301 301 301 301 301 302 302 303 304 306 309 311 314 314 315 314 314 314 316 314 313 313 315 320 326 327 330

GFSNE_850_thetae_003.txt.gz
Theta_e
334 334 334 333 332 331 332 331 332 331 330 330 328 328 328 330 330 329 330 330 328 325 319 319 318 317 317 317 317 316 316 317 317 317 318 319 326 331
332 330 333 332 331 332 333 332 330 329 329 329 329 329 329 329 329 329 330 329 327 327 325 324 322 319 316 316 317 316 316 317 318 318 317 318 318 322
335 330 332 334 333 331 331 331 330 330 330 328 330 329 329 329 329 329 331 329 329 327 327 325 324 322 320 318 316 315 317 318 317 316 317 317 318 318
333 333 334 334 335 335 333 332 333 331 331 331 329 330 330 329 329 327 328 327 327 326 325 323 324 324 323 322 318 319 319 319 318 317 317 318 318 318
334 334 335 335 334 334 333 333 331 331 332 329 329 328 328 327 327 327 327 326 325 324 326 326 324 324 323 322 320 322 323 322 321 320 319 318 319 320
334 334 335 335 334 333 334 335 332 332 332 330 329 329 328 326 327 326 326 326 326 325 326 325 323 324 323 321 321 323 323 323 322 322 321 319 319 320
334 335 335 334 336 334 334 330 331 331 331 330 329 327 328 327 327 327 327 326 326 325 324 323 324 323 323 321 322 324 324 323 322 321 320 319 319 319
334 334 335 334 333 332 327 328 331 329 329 328 328 327 326 327 327 326 326 325 323 323 323 323 322 321 322 322 324 323 322 321 321 320 320 320 319 320
333 333 333 335 330 327 330 329 327 325 328 328 327 327 327 325 323 323 324 323 322 321 322 321 321 322 322 324 323 321 320 319 319 319 319 320 320 320
334 336 336 333 328 327 327 327 324 326 328 328 328 326 326 324 318 317 318 317 318 320 321 322 321 320 321 321 320 320 318 319 319 320 321 322 322 320
334 335 333 327 326 326 325 324 326 327 330 328 326 325 323 317 317 317 319 318 318 319 319 319 319 317 316 316 317 319 319 320 321 320 322 323 324 323
333 334 326 326 325 325 323 325 327 329 327 326 326 323 319 320 317 318 318 320 319 318 316 314 313 314 318 319 319 318 319 320 320 321 324 325 325 325
334 332 327 326 327 324 324 326 325 323 322 321 321 321 321 319 317 317 317 316 315 314 313 310 313 318 319 319 317 318 319 320 321 325 326 327 327 327
331 331 331 329 326 325 323 322 321 320 320 319 320 321 320 316 315 315 314 312 310 310 306 315 317 319 319 317 318 319 321 323 325 326 328 330 331 330
328 327 329 328 325 323 321 319 319 318 318 320 320 318 314 314 313 312 311 308 305 306 314 318 319 318 320 318 318 318 321 320 323 328 328 331 334 332
327 327 327 324 322 320 318 318 317 318 319 318 314 314 313 312 311 309 307 306 306 312 316 317 318 318 318 317 317 317 319 319 319 322 329 335 334 332
328 326 324 324 323 322 321 319 318 318 316 315 313 312 310 309 308 306 305 306 308 313 316 318 317 318 318 317 316 316 318 317 318 321 328 331 333 334
324 323 322 322 321 320 320 319 318 315 314 313 310 309 308 307 306 305 306 307 308 312 315 318 317 317 318 316 315 316 315 315 317 321 327 329 330 333
318 320 321 321 320 319 317 315 313 313 311 309 308 307 306 305 305 305 306 307 309 311 315 316 315 316 316 315 315 315 313 313 316 320 324 328 330 330
318 319 320 318 317 315 313 313 312 310 308 306 305 305 305 305 304 305 305 306 307 312 315 315 315 316 315 314 315 314 313 312 314 317 320 328 330 332
320 319 317 316 315 313 312 311 309 307 304 302 304 305 304 304 304 304 305 305 306 310 313 314 314 315 315 314 314 314 313 313 313 312 314 325 329 329
319 318 316 315 314 313 311 309 306 303 303 304 304 304 303 303 303 304 304 305 306 307 311 313 313 315 315 315 314 313 313 313 314 313 312 312 313 321
318 317 316 315 313 312 309 306 303 302 303 303 303 303 303 303 303 303 304 304 305 306 308 311 312 312 313 314 313 312 313 312 311 310 314 312 312 318

GFSNE_850_thetae_006.txt.gz
Theta_e
334 328 328 333 334 332 332 332 331 330 331 329 329 330 329 329 329 329 329 329 327 326 325 324 323 322 319 317 317 317 317 317 316 316 316 317 317 317
332 333 333 333 334 332 331 331 332 331 329 329 328 329 329 329 329 329 330 329 326 326 325 326 327 326 324 323 321 317 315 316 316 316 316 317 317 317
331 330 331 332 331 331 332 333 331 330 329 331 327 327 327 328 328 329 328 327 327 328 328 327 328 325 324 323 324 323 321 319 316 315 317 317 316 316
334 333 328 328 329 333 331 329 330 331 333 330 330 330 328 328 328 329 328 328 328 327 325 327 327 326 326 324 324 324 322 319 320 321 320 319 318 317
330 333 331 333 333 333 335 334 333 333 331 332 331 330 328 327 324 325 326 327 327 325 325 326 326 326 325 324 323 324 323 320 321 323 323 322 321 320
333 334 333 334 334 333 331 329 329 331 332 330 332 331 330 329 327 328 328 328 327 328 327 326 325 325 323 324 325 324 323 321 321 324 324 323 323 322
336 334 333 334 335 329 328 330 331 331 328 329 330 327 325 328 328 327 326 325 323 322 326 326 324 324 324 324 323 322 321 320 323 324 323 322 321 320
330 331 333 335 334 330 330 332 329 327 330 328 327 324 323 328 325 325 326 326 324 321 324 322 318 321 318 318 318 322 323 324 324 323 322 321 321 320
330 332 333 331 331 330 330 327 327 327 327 326 323 324 326 324 325 325 322 319 317 316 313 315 321 323 323 320 320 321 323 323 321 319 316 315 316 318
328 330 330 327 328 332 329 327 326 325 325 325 326 325 325 326 325 325 321 316 315 317 319 321 318 318 319 321 320 319 316 316 318 318 318 319 319 319
326 327 327 326 325 327 327 326 325 325 323 325 325 326 327 327 325 320 318 317 317 318 318 318 318 316 315 315 309 317 319 318 318 319 321 322 321 321
328 329 329 330 328 327 326 325 326 324 324 327 324 324 325 323 321 320 318 317 318 320 318 316 315 312 309 317 319 319 320 318 318 319 321 322 324 323
329 331 332 332 331 327 327 326 325 324 324 322 321 320 320 321 321 320 317 318 318 315 314 310 306 308 312 316 319 318 319 317 316 319 320 321 324 326
330 334 334 332 330 327 328 326 325 322 320 319 319 319 321 320 317 315 315 315 313 310 307 306 307 316 318 318 318 318 318 316 316 319 319 318 322 326
331 331 330 328 327 327 328 325 320 318 318 317 319 320 319 316 314 313 312 310 308 307 306 308 315 316 318 318 318 318 316 316 317 317 316 318 322 326
331 330 328 327 326 326 322 321 320 319 317 319 319 317 314 313 311 310 309 307 306 307 308 311 315 316 317 317 316 315 315 315 315 315 315 318 324 327
327 327 326 325 324 324 322 321 320 319 317 318 316 314 313 310 309 308 306 306 307 307 310 313 314 316 316 316 314 314 314 314 313 313 314 316 323 328
327 329 327 324 324 322 321 320 319 319 317 315 314 313 309 308 307 306 306 306 306 308 308 313 314 315 316 316 314 314 313 313 312 313 314 314 320 327
326 324 320 321 322 321 320 318 316 315 314 312 309 308 307 306 306 305 305 305 306 306 307 313 313 314 314 315 313 313 313 312 311 311 312 313 317 326
319 319 320 321 320 318 317 315 314 313 311 309 307 306 305 305 305 305 305 305 305 305 308 313 312 314 314 314 314 313 312 311 310 310 310 313 318 326
322 321 320 319 317 316 315 314 313 311 308 305 305 305 305 305 304 304 304 305 305 305 308 309 311 313 312 314 314 313 312 311 310 308 308 310 311 322
322 321 319 318 316 316 315 313 311 307 304 304 305 304 304 304 304 304 304 304 305 305 306 306 310 311 312 312 313 312 311 311 310 308 307 308 307 306
321 320 318 317 316 315 313 310 307 304 303 304 304 304 303 303 303 304 304 304 304 304 305 305 311 311 311 311 312 312 310 310 308 306 306 308 308 309

GFSNE_850_thetae_009.txt.gz
Theta_e
324 320 331 333 331 332 332 332 331 330 330 327 329 328 331 329 329 330 330 328 327 325 326 326 326 326 325 325 324 323 320 317 315 315 316 316 316 316
326 323 325 326 331 334 331 331 330 331 331 328 329 328 329 329 328 328 329 328 328 326 324 323 327 326 327 327 324 323 323 323 321 319 317 315 315 316
330 326 327 328 332 333 332 331 333 331 331 329 330 330 329 326 326 325 326 327 329 327 327 325 326 325 327 327 326 325 324 324 323 321 319 318 316 317
333 332 328 331 328 325 328 331 331 330 331 332 332 330 330 330 330 327 325 326 326 326 328 327 325 325 324 325 326 325 325 323 324 323 321 321 322 322
332 334 332 325 323 322 332 331 331 332 333 332 328 329 329 329 330 330 328 327 327 328 329 327 326 325 327 325 325 323 324 325 324 323 322 321 321 323
331 331 331 331 327 329 331 330 331 328 327 328 328 327 329 329 330 329 329 329 328 326 325 324 324 326 326 326 324 324 324 324 324 323 322 320 322 324
331 333 335 334 331 331 332 331 328 327 328 328 327 328 328 327 326 322 327 326 322 321 321 319 319 323 322 320 320 320 318 316 318 321 322 323 323 324
329 330 334 333 333 331 332 331 330 329 331 328 327 327 326 324 323 325 325 323 324 320 319 316 315 313 313 316 318 318 317 319 320 322 321 323 322 321
333 333 336 334 331 331 334 330 328 328 328 327 326 325 325 323 326 325 325 324 323 319 317 316 315 319 317 317 318 319 320 321 322 320 318 319 318 317
335 336 332 331 333 332 329 328 327 327 326 326 324 323 325 324 324 324 325 323 320 317 317 317 318 319 318 317 316 315 313 311 311 318 318 318 318 318
337 336 332 333 329 327 325 327 328 327 325 325 322 322 324 324 323 324 324 321 320 318 318 318 319 318 316 314 308 314 318 318 318 318 318 317 317 317
333 333 333 329 327 329 329 328 328 326 327 326 325 325 325 323 321 320 321 322 322 321 317 318 314 311 307 306 313 316 317 317 317 318 317 316 317 317
333 332 330 327 329 331 330 329 328 327 325 324 322 321 319 319 321 321 320 317 315 313 312 310 308 307 306 310 315 316 317 316 316 315 315 316 316 316
335 332 332 333 333 331 329 328 327 327 322 319 317 317 319 320 317 315 314 313 312 310 309 308 306 306 309 315 316 316 316 315 315 314 314 314 315 315
332 329 329 329 329 329 327 326 325 320 319 318 317 319 320 318 317 315 314 311 309 308 306 307 309 311 313 315 314 316 315 314 314 313 313 312 312 313
328 330 329 330 328 326 323 321 320 319 318 317 317 317 316 315 314 312 309 308 306 306 306 309 311 312 313 314 315 316 314 313 313 313 311 311 311 312
330 331 328 326 324 323 324 323 320 319 318 317 318 317 315 314 311 308 306 305 305 306 306 307 309 312 312 312 313 314 314 313 312 311 310 310 310 311
323 324 325 324 322 324 323 321 320 319 318 318 316 313 311 309 307 306 305 305 305 305 305 305 307 311 312 312 314 314 314 312 311 311 310 309 309 311
327 327 326 321 322 321 320 319 317 315 314 312 312 312 309 307 305 305 304 304 304 305 305 305 312 309 311 312 313 313 313 312 310 309 309 307 307 310
326 323 319 320 321 321 319 318 317 315 314 313 312 308 305 305 305 304 304 304 304 304 305 306 310 306 311 311 312 312 313 310 309 308 306 305 307 309
322 322 321 320 320 319 317 316 315 314 313 311 304 305 305 304 304 303 304 304 304 304 305 305 304 305 310 311 310 312 311 309 308 306 304 304 305 307
322 321 321 319 318 317 316 316 314 312 309 303 304 304 304 303 303 303 304 304 304 304 304 304 304 309 311 310 310 311 309 309 308 306 303 303 303 303
320 321 320 319 318 318 316 314 311 308 303 303 304 304 303 302 303 303 304 304 304 303 304 304 305 308 311 309 309 310 308 308 306 303 302 303 304 305

GFSNE_850_thetae_012.txt.gz
Theta_e
320 323 327 332 333 332 332 333 333 330 328 329 328 328 328 329 329 329 329 329 329 328 328 326 325 326 327 326 327 326 324 323 321 321 320 318 316 315
324 323 321 327 333 331 332 330 331 330 331 330 329 328 329 328 327 326 324 325 327 327 327 327 326 325 328 326 326 327 326 325 323 323 323 322 319 318
322 324 323 324 328 332 333 332 331 332 332 331 330 329 329 329 328 327 328 325 325 325 326 326 327 328 327 326 325 324 325 325 325 325 324 323 321 320
320 325 328 328 329 330 333 332 332 332 330 330 330 329 329 328 329 329 328 329 327 327 328 327 327 328 328 326 325 326 326 326 324 323 324 324 323 322
320 326 329 331 330 328 328 329 329 331 330 329 330 329 327 328 327 328 330 330 329 329 328 328 327 327 325 326 327 327 326 325 324 324 324 324 323 323
322 325 331 332 333 331 327 326 332 333 332 330 326 327 327 328 328 327 327 326 325 327 325 321 321 321 320 323 325 325 325 323 323 323 322 320 321 319
325 320 325 327 332 333 330 328 331 330 330 327 327 329 328 327 325 325 325 324 324 323 321 321 319 317 317 316 316 315 315 315 316 317 318 321 321 322
329 321 325 328 334 335 328 330 331 332 328 330 329 328 326 325 325 325 326 326 325 322 323 319 317 316 316 318 316 314 314 315 316 317 320 320 321 320
332 324 327 330 333 335 331 330 328 329 330 329 328 327 325 323 323 324 324 325 324 322 321 318 317 317 317 317 316 315 315 314 312 312 316 316 316 316
333 325 330 333 333 333 332 331 330 329 328 328 327 326 324 321 323 325 325 325 324 322 320 320 319 318 316 316 315 313 309 312 317 318 317 318 318 319
327 335 336 337 334 331 331 332 328 325 327 328 328 326 324 323 324 324 323 323 321 321 322 322 318 315 313 313 311 306 312 315 316 317 316 316 316 316
336 337 337 334 335 333 330 326 327 329 328 328 327 326 324 322 321 320 319 320 321 321 317 313 313 310 308 308 307 306 314 315 315 315 315 315 314 314
333 335 334 334 334 330 328 328 329 328 327 327 325 320 318 317 318 320 319 316 314 313 313 310 309 307 306 307 309 311 313 313 315 315 314 314 313 312
337 336 334 332 330 329 329 329 328 327 327 321 318 317 317 319 318 317 316 315 313 312 310 308 306 307 308 310 313 313 312 313 315 314 313 313 313 312
337 334 332 329 329 329 329 328 326 323 319 318 317 316 317 317 317 316 315 313 309 308 306 306 307 309 310 310 312 312 311 311 313 314 313 313 312 312
336 331 329 329 329 329 327 323 321 320 320 318 317 316 316 317 315 314 312 308 305 305 305 306 306 306 308 311 311 311 313 314 314 314 313 312 311 310
332 330 330 331 328 323 322 322 322 321 319 318 317 317 317 316 313 309 305 305 304 304 304 306 305 307 309 309 309 311 312 313 313 313 312 310 310 308
324 325 327 325 323 321 322 323 322 320 319 319 319 317 313 311 309 306 305 304 304 304 304 304 305 306 309 305 309 310 309 311 311 310 310 308 308 306
322 323 324 324 321 320 322 321 320 319 317 316 314 313 312 311 308 305 304 304 304 304 304 304 305 306 305 305 308 310 310 310 309 309 308 306 305 304
325 325 324 323 321 322 321 319 318 316 315 314 313 312 308 303 304 304 303 303 304 304 304 304 304 304 305 306 310 310 308 309 308 307 306 304 303 302
325 324 321 320 319 320 320 318 317 315 314 313 312 305 304 304 303 303 303 303 303 304 303 303 304 304 306 309 310 308 307 308 307 306 302 301 299 300
323 321 322 321 320 318 318 317 316 316 311 307 304 304 304 303 303 302 303 303 304 303 303 303 304 306 307 310 309 306 307 307 307 307 302 299 298 298
321 321 321 320 319 318 318 318 316 315 312 309 304 303 303 303 302 302 303 303 304 303 303 303 304 304 305 309 307 304 306 307 306 305 303 301 300 299

GFSNE_850_thetae_015.txt.gz
Theta_e
320 326 330 333 333 333 332 331 331 331 329 328 328 327 328 327 328 328 329 325 326 328 328 328 328 327 325 327 328 327 327 327 325 324 323 322 321 321
321 320 320 324 328 333 332 332 332 331 330 330 330 329 328 327 328 329 327 326 325 324 326 327 328 328 327 326 326 326 325 324 325 325 324 324 323 322
321 321 322 323 322 328 333 333 331 330 331 329 330 331 329 328 330 328 329 329 328 328 326 326 326 326 326 327 328 327 326 325 325 325 325 325 323 323
321 321 321 324 323 326 328 332 333 332 331 331 330 330 329 329 329 328 327 328 328 329 329 329 328 327 329 328 328 327 326 326 326 325 325 324 323 323
321 321 320 325 328 327 326 330 331 330 331 331 331 329 329 328 327 327 326 325 325 328 328 329 328 326 321 322 322 322 322 324 325 325 324 324 324 324
332 322 321 323 326 331 331 329 329 331 329 331 331 330 327 327 328 327 325 324 324 325 323 324 322 321 320 318 317 317 319 322 323 322 321 321 321 320
343 330 325 321 323 326 331 332 332 329 331 332 331 330 328 329 328 325 324 323 323 323 323 322 320 319 317 317 316 315 315 316 315 315 317 318 317 318
344 340 329 326 321 326 330 333 332 331 332 330 329 328 329 328 327 325 322 324 324 323 323 323 322 319 317 317 315 315 315 313 312 312 312 312 317 318
345 344 335 330 322 326 330 333 334 331 329 328 329 329 328 327 326 324 321 324 324 324 325 325 322 320 319 319 316 314 313 312 310 308 312 314 313 311
345 345 340 334 325 327 332 333 334 332 330 330 328 326 327 328 326 323 321 323 324 323 323 323 320 321 319 316 315 313 310 307 310 314 315 316 316 316
346 341 338 336 329 332 335 333 330 331 330 327 327 327 328 327 326 324 323 323 321 319 319 321 317 315 315 315 310 306 306 308 312 314 314 315 315 315
341 336 330 331 335 336 336 334 332 328 326 328 329 328 327 325 323 319 319 319 320 317 315 313 314 311 308 307 306 307 309 310 313 313 313 314 315 314
336 332 333 335 335 336 335 334 331 328 328 328 327 325 320 318 317 317 318 317 315 315 314 311 309 307 306 307 308 308 309 311 311 310 310 311 313 313
335 334 333 334 334 332 331 330 328 329 328 326 324 318 318 316 318 319 317 316 314 313 310 308 306 306 307 307 307 309 310 310 312 312 313 314 313 313
335 334 336 335 333 330 330 328 328 328 326 321 319 318 317 316 315 315 315 313 311 307 305 305 305 306 305 305 306 308 308 310 309 309 310 312 311 310
335 337 336 333 330 328 328 328 327 323 320 319 318 317 317 316 316 316 313 309 305 304 304 304 304 304 304 307 309 306 307 310 309 307 309 310 309 309
338 337 333 328 328 329 328 324 321 321 321 319 318 318 318 317 315 312 310 306 304 303 303 303 304 304 304 305 307 304 308 310 308 307 308 308 308 308
337 335 329 329 330 326 322 321 322 322 321 320 319 318 316 314 311 309 307 304 304 303 303 304 304 304 304 304 304 307 309 309 307 306 307 307 308 307
330 325 324 325 324 322 320 321 321 321 319 317 315 314 313 312 311 306 304 304 302 303 303 304 303 304 303 303 305 308 309 307 306 307 307 306 305 304
321 322 322 323 323 320 319 321 320 319 317 315 315 314 313 311 304 304 303 302 303 303 303 303 303 303 303 305 307 307 308 304 305 306 306 305 304 302
322 322 323 324 321 319 319 320 319 317 316 316 314 310 307 304 304 302 302 302 303 303 303 303 303 303 304 304 305 307 305 302 306 306 305 302 301 299
323 323 323 321 320 320 319 319 317 316 316 314 310 306 303 304 303 302 302 302 303 303 303 302 303 303 303 303 306 306 302 301 303 306 305 303 300 299
323 323 322 321 321 321 319 318 317 317 315 313 311 307 303 303 302 302 301 302 302 303 302 302 302 303 303 302 304 303 302 301 303 305 303 303 302 300

GFSNE_850_thetae_018.txt.gz
Theta_e
321 320 327 333 333 333 333 331 331 330 330 330 328 328 326 326 327 327 328 328 326 325 325 326 327 328 328 327 326 326 326 325 325 326 326 324 322 323
321 320 320 325 326 329 330 333 331 331 332 331 329 328 329 329 328 329 329 329 328 328 327 326 326 325 326 325 326 327 326 325 324 324 324 325 324 324
322 321 321 320 321 324 328 333 331 331 330 330 330 330 331 330 329 330 328 328 327 327 328 329 328 328 327 327 327 327 327 327 326 326 325 325 325 325
332 322 321 322 322 322 322 326 332 332 331 331 331 331 330 330 329 329 328 327 326 325 325 326 329 329 329 327 326 324 326 327 325 323 324 326 325 325
343 335 322 322 322 324 324 326 329 331 332 331 328 331 331 330 329 327 327 327 325 324 324 326 326 326 324 322 320 320 319 319 321 323 324 324 324 324
345 343 336 324 323 325 328 328 329 329 328 330 329 329 331 331 330 327 329 326 325 323 322 323 323 323 321 319 317 317 316 316 316 315 315 316 318 319
346 346 344 336 325 326 330 331 332 333 331 329 329 331 332 329 329 329 328 326 325 321 320 321 321 322 322 319 317 317 316 315 316 315 313 313 314 315
348 347 346 343 335 326 329 332 334 334 332 329 331 330 330 328 329 327 326 325 324 321 321 320 320 319 321 320 319 319 317 315 314 313 312 311 309 308
350 349 347 345 343 334 333 330 333 334 334 332 329 329 329 329 328 328 327 325 322 322 323 322 321 319 319 320 320 318 316 314 311 310 309 311 312 315
350 349 343 346 344 335 334 328 332 334 334 333 331 330 329 326 327 328 327 325 323 323 322 320 319 319 319 317 316 315 310 305 305 306 307 314 314 315
351 338 345 344 343 338 336 328 333 333 333 330 331 328 327 328 328 327 326 324 321 319 318 319 317 315 316 316 312 306 305 307 308 310 312 313 312 312
353 347 345 342 340 336 335 331 336 334 332 330 328 327 328 327 325 322 319 317 318 317 316 315 314 311 308 307 306 305 307 308 310 311 310 310 310 311
340 347 344 340 336 332 334 337 335 334 333 330 328 328 326 323 318 316 316 318 317 315 313 311 309 307 306 306 305 305 307 310 308 309 309 311 312 313
346 344 339 330 331 334 334 334 333 333 330 328 328 326 322 318 315 315 315 315 314 313 310 307 305 305 305 305 305 305 307 308 306 309 309 307 304 305
343 337 334 334 334 334 334 332 329 329 328 328 327 321 318 316 315 315 315 315 313 309 304 304 304 304 304 304 304 305 308 306 304 309 309 307 303 304
337 335 334 333 335 335 333 330 328 328 328 326 320 318 318 317 317 316 315 313 311 306 303 303 303 304 304 304 304 304 304 304 307 309 308 304 302 304
336 334 334 336 335 333 328 328 328 328 324 320 319 318 318 318 317 316 313 310 308 303 302 302 303 304 304 304 303 303 305 307 308 308 304 302 303 304
335 334 336 335 332 328 328 329 326 321 320 321 320 319 318 316 314 312 310 307 304 303 302 303 303 303 303 303 303 304 306 308 307 304 302 305 304 305
335 335 336 334 328 328 329 324 321 321 322 321 318 317 315 314 312 311 305 303 303 301 303 303 303 303 303 303 303 304 306 307 304 302 301 304 305 305
337 336 335 331 328 327 323 321 320 321 319 317 317 316 315 313 311 304 303 303 301 302 303 303 303 302 303 303 303 302 305 305 302 301 302 304 303 303
334 331 323 321 322 322 321 319 320 320 319 318 317 316 312 310 304 303 302 301 301 302 302 303 302 302 303 303 302 302 301 302 302 300 302 303 301 303
325 321 321 321 322 322 320 319 320 319 318 317 316 314 309 305 303 303 302 301 301 302 302 303 302 302 302 303 302 301 301 300 298 298 298 298 301 301
322 321 321 323 323 321 320 319 320 319 317 316 315 313 309 305 303 302 302 301 300 301 302 302 302 302 302 302 301 301 300 298 298 298 297 296 303 302

GFSNE_850_thetae_021.txt.gz
Theta_e
324 324 322 328 331 332 333 333 333 332 332 332 330 328 327 326 326 327 328 328 327 326 326 325 325 324 324 326 327 326 325 324 325 324 324 324 324 324
325 322 321 321 324 328 331 331 332 333 332 333 331 329 329 330 328 328 330 328 328 328 328 328 329 328 327 326 325 325 326 326 326 326 325 325 325 324
327 322 322 321 321 322 322 326 331 332 333 334 330 330 330 331 331 329 329 329 328 327 326 325 325 328 329 329 328 328 326 326 327 327 327 326 326 324
332 328 322 322 321 321 321 321 322 329 333 333 334 331 331 331 330 330 330 328 328 327 325 324 325 327 329 328 328 325 322 320 320 322 323 322 321 323
338 339 338 327 322 322 322 323 323 325 328 331 333 332 328 330 331 330 329 328 328 328 325 323 322 323 323 322 322 320 318 317 316 317 317 319 321 322
341 342 343 341 329 323 323 325 327 326 327 330 333 333 329 331 331 332 332 330 329 327 325 322 320 321 322 321 321 320 318 317 316 315 315 315 315 316
344 345 345 345 343 332 326 326 328 330 330 333 334 333 332 332 332 332 330 331 329 327 326 323 323 324 325 323 320 320 319 319 318 315 315 315 313 313
347 346 346 346 346 344 332 329 329 331 332 335 335 334 334 328 331 330 331 330 329 329 326 327 327 324 326 326 323 318 320 320 315 315 314 314 312 311
348 349 348 348 347 346 344 333 331 332 333 334 334 333 333 329 328 329 329 327 330 330 326 327 326 326 324 322 319 319 317 316 315 309 308 308 308 310
348 350 350 349 349 347 346 340 335 332 330 333 334 334 331 330 329 327 327 328 327 326 325 324 323 323 321 319 317 316 315 309 305 305 306 307 310 312
346 347 347 350 350 342 346 342 335 332 331 334 334 333 331 330 327 328 328 326 327 325 323 321 320 320 317 316 313 309 305 305 306 307 307 311 311 311
346 346 346 350 340 343 345 342 336 329 331 334 332 330 329 327 328 327 324 323 322 321 320 317 317 315 312 311 310 308 308 308 308 310 309 309 310 311
347 346 346 350 346 345 343 342 335 329 335 334 333 331 328 328 327 322 317 317 319 318 318 313 314 312 310 309 308 308 308 309 310 310 310 308 307 309
345 345 348 347 346 343 341 338 333 336 335 334 333 330 328 326 320 316 315 315 315 315 313 310 307 308 308 307 307 307 308 308 310 310 310 312 311 310
349 349 348 344 345 339 334 334 336 334 334 334 332 328 327 321 317 315 315 315 315 314 312 307 303 306 307 307 306 307 307 308 309 310 311 312 311 310
351 346 344 344 335 331 334 335 334 333 331 330 328 328 323 318 317 317 316 315 314 312 310 303 302 303 305 306 306 307 307 307 308 310 312 311 309 307
341 342 339 336 335 334 334 334 333 330 328 328 328 325 319 318 318 317 315 314 312 311 307 306 305 303 303 303 305 306 306 307 309 310 311 308 307 306
333 332 333 335 334 334 334 334 331 329 328 328 324 320 319 319 319 315 314 312 311 308 306 305 306 306 306 306 306 306 305 306 308 309 308 306 306 306
333 332 331 334 334 335 335 330 327 328 327 322 320 321 320 320 316 315 312 311 308 306 305 306 306 306 305 305 306 306 306 306 308 307 306 305 305 305
335 332 333 334 334 335 330 327 329 326 321 321 321 319 316 316 315 313 310 307 306 305 305 306 306 306 305 305 305 306 306 306 306 305 304 303 303 302
334 336 335 334 335 331 328 329 326 321 321 321 318 317 317 316 313 310 307 304 303 304 305 306 306 302 302 303 308 305 306 305 304 303 303 303 302 302
336 336 335 335 332 330 328 326 321 320 321 320 318 317 316 314 311 308 306 305 305 305 305 305 304 304 305 306 305 305 305 305 303 302 301 301 301 302
336 336 335 328 324 323 324 322 319 319 320 319 318 317 316 315 312 307 306 305 304 304 305 305 304 305 305 305 305 305 305 303 302 301 301 300 299 302

GFSNE_850_thetae_024.txt.gz
Theta_e
328 322 325 336 338 337 336 335 335 335 334 335 333 333 333 332 332 328 330 332 327 327 326 327 328 328 327 326 325 325 327 327 326 326 325 324 324 324
336 328 323 333 337 336 335 335 334 334 334 333 333 333 333 333 333 328 334 330 328 328 327 327 326 325 325 328 328 327 326 326 325 325 326 327 326 326
334 332 324 326 335 336 337 335 334 334 334 333 334 334 331 330 334 333 334 334 334 332 328 326 325 324 324 326 329 329 329 328 327 323 323 326 327 328
337 333 333 329 323 328 337 336 335 336 334 336 335 335 334 336 334 337 335 334 334 332 329 328 326 323 322 325 327 326 324 322 320 318 318 319 320 321
342 337 340 335 324 332 331 335 336 336 334 334 335 337 336 336 336 334 336 336 334 332 330 328 327 324 321 321 320 320 320 320 319 317 316 316 316 316
344 342 344 341 338 334 325 324 330 333 336 335 334 334 336 336 335 333 335 337 335 333 331 330 328 326 322 321 321 321 321 320 319 318 318 316 315 315
344 343 345 344 342 342 339 332 330 329 333 336 335 334 334 335 336 334 333 333 332 333 333 331 331 331 330 328 328 328 326 322 320 319 319 317 315 315
344 344 346 345 344 345 345 342 336 328 332 334 335 335 336 336 336 335 334 333 332 332 332 332 330 330 329 328 327 326 325 320 320 317 316 316 315 314
340 345 350 349 345 346 346 346 344 337 329 337 338 337 338 338 337 335 334 333 333 332 332 331 329 327 326 325 324 323 319 317 317 316 313 308 306 305
344 348 351 351 347 348 348 347 346 345 338 330 335 338 338 338 336 332 332 330 332 332 331 330 326 324 324 322 321 319 317 312 309 306 305 306 308 308
351 352 352 350 348 349 350 348 346 345 341 334 331 336 336 334 333 334 334 332 332 331 328 327 323 321 321 319 317 315 311 308 307 306 305 306 308 309
349 347 344 347 347 348 350 349 346 345 342 339 332 333 335 334 331 329 331 331 329 325 324 323 319 318 318 316 313 312 311 310 309 310 310 309 308 307
347 351 352 346 346 347 349 346 341 345 342 340 334 334 333 331 329 328 328 326 323 322 322 320 318 317 314 312 310 310 310 310 311 311 312 312 311 311
349 349 349 342 344 347 348 345 344 344 342 337 336 336 334 332 329 327 324 318 320 316 319 315 316 314 312 310 309 309 309 310 310 310 312 312 311 313
352 351 349 342 345 348 349 344 344 342 338 335 336 335 334 330 327 325 317 315 314 314 314 314 312 310 309 308 309 309 309 310 310 310 310 311 313 314
353 353 350 348 348 348 345 343 341 337 334 336 335 335 331 327 325 322 321 320 319 318 316 313 308 302 308 308 309 308 308 309 309 309 311 312 313 311
351 352 350 348 345 344 342 338 334 332 333 335 335 333 328 326 323 322 321 319 319 316 315 313 310 306 308 307 308 309 310 309 308 308 310 311 311 310
350 350 347 346 344 340 336 331 331 331 335 334 332 329 327 325 323 322 321 319 317 316 314 311 309 309 309 309 309 309 309 309 308 309 309 309 308 308
351 346 343 340 338 334 333 332 332 335 333 333 329 328 325 324 323 322 320 318 316 314 311 309 309 309 309 309 308 308 307 308 309 309 308 307 307 306
346 342 335 333 334 333 332 334 334 334 333 330 329 326 324 324 323 320 319 317 315 311 310 308 309 310 309 308 307 307 309 308 308 307 307 306 305 304
336 333 335 334 333 332 333 334 334 333 331 329 327 325 324 323 321 319 317 314 312 310 309 309 309 309 307 306 309 310 309 308 307 306 305 304 304 303
333 334 335 332 334 334 335 334 332 331 329 327 325 324 323 321 319 317 315 313 310 307 308 308 309 308 308 308 308 308 308 308 308 305 304 302 302 301
334 335 335 334 335 334 334 332 330 328 327 326 324 323 321 319 318 315 313 311 309 309 308 308 308 308 308 308 307 308 308 308 306 305 304 302 301 299

GFSNE_850_thetae_027.txt.gz
Theta_e
346 327 328 339 340 340 339 338 337 338 338 338 336 335 334 335 334 334 334 333 331 328 327 327 326 325 325 325 326 327 326 325 326 326 326 326 327 326
348 344 330 337 337 340 338 337 336 335 336 337 338 336 335 334 335 331 334 334 330 328 327 326 326 325 325 324 324 326 328 328 328 328 327 325 325 327
346 346 341 330 338 338 338 337 336 336 335 335 336 336 335 331 337 335 334 336 335 335 334 331 327 327 325 323 322 325 328 329 329 327 323 321 320 320
350 346 345 331 326 335 339 338 337 337 336 335 336 338 336 337 332 338 337 335 336 336 334 332 328 328 325 323 321 321 324 323 322 320 319 318 317 316
350 351 342 339 331 331 330 338 339 338 339 337 337 338 338 339 338 339 337 336 333 335 333 333 330 330 329 327 323 321 320 320 320 320 319 317 316 316
343 348 351 346 336 332 330 328 335 338 338 338 337 336 336 338 338 337 336 336 337 336 334 333 332 331 330 330 329 327 328 327 326 325 319 318 318 318
343 348 353 352 346 334 335 336 334 334 335 337 338 337 336 336 337 336 337 335 335 334 334 334 334 332 331 331 330 329 328 328 327 325 322 319 318 317
350 353 351 354 353 345 339 341 342 340 338 337 336 338 337 337 338 337 337 336 334 335 334 335 334 333 331 329 327 326 324 324 323 319 318 317 316 316
352 353 353 353 352 350 342 342 344 344 344 341 336 337 338 338 338 337 337 337 336 335 334 334 333 332 329 326 326 325 324 322 319 316 315 312 308 306
352 351 352 347 352 351 347 344 345 346 346 345 341 335 333 338 340 337 336 336 334 332 333 334 332 329 326 324 324 323 320 317 311 306 305 304 304 304
349 350 351 350 348 351 348 345 345 347 347 347 345 337 335 338 332 336 337 336 335 334 332 332 329 325 322 322 321 319 316 312 311 310 310 310 311 310
350 350 350 348 350 351 350 348 348 347 349 348 345 341 333 334 329 333 336 336 334 332 331 327 327 323 320 320 319 316 314 313 312 311 311 311 313 312
352 354 353 348 346 349 350 346 344 346 349 347 344 342 335 335 331 334 333 331 333 330 327 324 324 321 319 318 316 313 312 312 312 312 312 312 313 312
353 353 354 354 352 350 353 348 346 350 349 346 343 342 338 337 336 334 332 329 328 326 324 322 320 318 318 316 314 312 312 312 312 312 312 312 312 312
350 355 353 352 352 353 352 352 351 349 346 344 342 340 337 335 334 334 330 328 324 319 315 313 313 315 316 314 311 311 311 311 311 311 311 311 313 314
356 353 355 354 351 353 353 351 350 348 344 344 341 338 335 335 334 332 329 326 321 321 319 318 316 313 309 311 311 311 311 311 311 311 311 311 311 312
359 357 354 354 353 353 352 347 346 343 343 342 340 336 335 335 333 329 327 325 323 322 321 319 317 314 310 309 310 311 312 312 311 311 310 311 311 311
358 357 355 353 352 352 350 347 343 343 343 340 333 332 334 333 331 328 325 324 322 321 320 318 318 314 312 312 312 312 312 311 310 310 311 311 310 309
359 357 355 350 352 352 348 346 342 343 336 335 333 332 334 331 329 327 325 324 322 321 319 318 315 312 312 312 312 311 311 310 310 311 310 309 308 308
355 356 353 351 350 350 346 344 340 336 335 335 334 335 333 330 328 326 325 324 321 320 318 315 313 312 312 312 312 310 308 311 311 310 310 309 307 306
350 351 351 348 346 343 344 340 337 336 335 335 335 334 331 329 327 325 324 322 320 319 316 314 313 311 312 312 309 310 313 311 309 309 309 307 306 305
335 339 344 343 344 343 341 337 336 335 335 335 334 331 330 327 326 325 323 321 318 316 314 313 311 311 311 310 310 311 311 311 311 310 308 306 305 303
337 337 338 338 337 337 335 334 335 336 334 334 332 330 327 326 324 323 321 319 317 314 312 311 311 311 311 311 310 310 310 310 310 310 308 307 305 303

GFSNE_850_thetae_030.txt.gz
Theta_e
333 325 336 340 341 341 340 339 338 338 338 338 337 336 335 335 335 334 333 330 330 330 328 327 326 326 325 325 325 325 326 327 327 327 327 328 326 325
349 334 325 330 338 340 340 339 337 336 336 339 337 336 335 335 335 334 330 331 333 331 328 328 327 326 326 326 325 323 324 326 328 329 329 328 326 322
350 347 336 329 329 337 339 338 337 336 334 334 338 337 336 334 334 336 334 333 334 332 334 334 333 331 327 327 325 323 322 323 326 326 324 321 319 318
347 347 344 336 332 334 339 338 337 337 336 335 335 338 337 337 336 332 330 334 336 337 337 335 334 331 328 330 329 327 323 321 320 320 319 319 319 317
351 349 348 339 333 330 333 337 338 338 337 336 336 336 336 337 338 337 336 336 331 333 335 334 333 333 332 330 329 328 327 327 326 326 325 326 323 317
350 355 350 346 338 331 330 328 331 337 336 336 335 334 338 338 338 339 336 336 335 335 337 336 334 333 333 331 330 330 329 328 328 327 326 324 321 317
338 350 353 349 341 336 335 333 329 335 338 337 337 337 337 336 338 338 338 336 336 335 336 336 335 334 333 333 332 331 330 328 325 324 323 320 317 317
344 342 350 350 345 343 339 340 334 331 331 333 335 336 338 337 336 336 338 337 337 335 335 334 334 334 334 333 330 327 325 324 323 321 318 315 314 314
346 345 344 344 348 347 346 343 343 337 339 339 339 337 337 337 337 338 338 337 336 336 336 335 334 333 333 329 327 325 324 323 321 318 310 305 303 303
350 347 345 344 349 349 347 348 345 343 340 342 343 343 339 338 339 338 338 338 335 334 334 335 331 330 330 328 325 324 323 321 317 312 310 308 309 309
351 351 351 350 347 353 353 348 345 346 343 342 343 345 345 343 336 338 340 338 332 331 331 332 332 332 330 323 322 321 320 318 313 312 311 311 311 313
355 354 353 353 351 350 354 354 353 347 345 344 344 344 344 343 339 339 337 337 334 335 332 332 332 331 327 323 320 320 317 314 312 312 312 312 312 312
357 357 357 356 356 354 352 353 350 352 347 346 344 345 345 345 342 337 336 336 336 335 333 332 329 328 325 321 319 318 315 313 312 311 312 311 312 312
360 358 357 358 357 357 357 354 353 355 353 349 348 347 346 346 344 340 333 331 334 333 332 331 328 325 323 319 318 316 313 312 312 311 311 311 311 311
362 361 359 359 357 357 357 357 356 356 354 352 351 349 349 346 343 339 335 333 334 332 331 330 327 323 319 314 315 313 311 311 311 311 311 310 310 311
363 361 361 359 356 358 357 356 356 355 354 353 352 348 348 343 341 337 334 332 331 330 329 328 321 314 313 313 311 309 309 311 310 311 312 311 310 309
363 363 363 361 361 357 356 356 356 356 356 353 352 348 345 342 339 336 333 334 331 329 327 322 319 319 317 314 309 306 307 310 312 312 311 311 309 311
360 361 362 361 360 359 358 355 354 355 355 353 351 348 343 340 338 334 333 334 331 328 322 321 321 320 317 313 311 312 312 311 312 311 310 310 311 310
359 358 358 358 358 359 358 357 355 352 352 350 347 346 341 338 335 332 334 331 328 324 322 321 320 319 315 314 312 313 312 311 311 309 309 311 310 308
345 347 351 353 354 353 353 353 352 350 349 347 347 344 340 331 333 334 330 328 325 324 322 321 319 318 315 313 312 313 312 311 309 310 310 309 308 306
333 336 340 342 344 348 349 349 348 348 347 345 343 342 334 334 334 332 330 327 325 324 322 320 319 317 315 312 312 312 311 311 312 310 310 310 308 307
333 337 337 338 338 337 338 340 345 345 346 343 340 336 335 335 333 330 328 326 325 323 321 319 317 314 313 311 312 311 309 311 311 310 311 309 308 306
330 335 334 333 333 333 336 337 339 339 337 336 335 335 335 333 331 329 327 325 324 322 320 317 314 313 312 311 310 310 311 311 310 311 310 309 308 307

GFSNE_850_thetae_033.txt.gz
Theta_e
331 332 336 341 341 341 338 338 339 339 338 338 337 336 336 335 335 335 334 331 329 328 329 327 326 326 326 326 326 325 323 323 325 327 328 328 328 327
338 332 325 334 339 340 340 335 336 338 337 338 338 337 336 335 335 334 334 334 330 329 329 328 330 327 328 327 326 327 324 322 323 325 326 326 323 320
346 343 333 326 337 339 340 338 335 333 333 335 336 337 336 336 335 334 335 335 334 330 333 333 334 334 333 330 329 329 327 325 322 321 321 320 319 320
344 347 340 337 329 333 335 338 337 334 332 330 334 338 337 336 336 336 335 332 332 331 335 336 336 335 332 331 330 328 326 325 325 324 324 324 324 324
339 346 346 344 338 334 331 334 338 337 335 334 333 334 337 337 337 337 337 335 334 331 332 334 335 334 333 332 331 330 329 328 327 327 326 326 325 321
338 338 347 349 340 337 336 332 335 337 337 335 334 335 335 336 337 337 337 337 334 334 333 334 334 335 334 333 332 332 329 329 329 328 326 325 322 319
342 338 337 336 337 336 336 335 332 334 335 335 335 334 334 334 335 336 337 337 337 335 334 334 335 335 335 334 333 333 332 331 330 326 323 320 316 312
343 342 342 339 337 337 339 339 338 334 332 332 329 332 332 333 333 335 337 337 338 336 335 335 335 335 335 333 332 330 329 326 325 323 320 315 306 305
344 343 341 342 342 341 340 345 346 342 341 336 331 330 333 334 336 336 336 336 337 337 336 335 334 335 334 334 333 331 327 325 323 320 315 308 307 307
350 346 345 343 343 343 342 345 349 348 345 345 341 333 332 335 336 337 337 337 337 338 337 336 334 334 333 330 329 329 325 323 320 316 311 310 309 310
357 356 353 350 349 349 350 350 348 348 346 349 348 345 337 336 336 339 340 339 339 338 337 335 331 331 332 330 331 329 321 320 319 314 312 311 311 311
358 357 358 358 358 357 355 354 353 350 349 347 350 349 347 341 340 337 338 340 339 338 338 334 330 332 333 332 331 327 320 319 316 313 312 311 311 311
360 360 359 359 359 359 361 359 356 354 353 353 351 350 350 346 342 342 342 341 339 336 336 330 328 332 333 330 328 325 318 317 314 312 312 311 311 311
361 361 361 360 360 358 358 357 358 359 358 356 355 354 352 350 347 343 343 342 341 340 334 330 330 332 331 330 325 323 319 317 313 312 311 311 311 311
361 361 361 361 359 360 359 358 358 358 359 356 355 353 353 353 350 346 342 340 339 338 333 327 331 333 330 327 326 323 317 315 313 311 310 310 310 310
364 364 363 363 363 362 361 360 358 359 358 358 356 354 352 350 352 349 344 340 337 336 333 330 333 333 331 326 324 316 312 313 310 309 310 310 312 311
361 361 363 363 362 360 362 361 360 359 357 357 357 355 352 351 351 350 347 343 337 335 332 328 331 332 330 321 315 313 312 310 307 308 311 312 311 310
359 358 358 358 358 359 360 361 359 355 355 356 354 354 353 348 347 348 347 344 338 335 329 330 332 329 318 317 316 315 309 307 309 311 313 312 310 309
356 353 348 349 354 353 355 355 354 354 353 352 352 352 352 348 348 346 347 340 337 330 330 331 330 324 319 319 317 311 310 312 311 312 312 311 308 309
332 332 332 332 335 341 343 343 344 345 349 350 350 350 350 348 344 342 342 340 334 332 332 332 328 322 321 318 317 314 312 312 312 311 310 309 309 309
331 331 333 334 336 333 331 333 335 336 337 338 339 343 349 347 345 341 337 337 332 331 333 331 325 322 321 319 316 314 312 313 311 310 311 310 310 309
331 329 331 333 332 331 331 332 331 333 334 337 340 339 337 335 335 334 333 333 331 330 332 326 323 321 319 317 315 314 312 312 311 311 311 310 310 309
334 334 334 334 334 334 335 334 331 330 331 331 331 329 328 327 327 328 330 331 329 328 327 323 321 320 318 317 315 312 311 311 310 311 310 311 310 308

GFSNE_850_thetae_036.txt.gz
Theta_e
339 343 339 340 341 341 341 340 338 338 338 338 337 337 336 336 335 335 334 333 331 326 327 327 326 326 326 326 325 326 327 324 323 323 325 327 327 326
341 333 335 335 338 340 340 339 337 338 338 338 338 338 337 336 335 335 334 334 334 330 327 327 327 329 327 332 329 327 328 327 325 323 322 322 321 319
344 341 329 326 331 335 335 336 335 335 334 334 336 338 337 336 335 335 334 334 334 334 330 330 330 333 334 333 330 330 327 325 324 323 323 322 322 323
339 341 337 334 326 328 333 333 334 337 334 330 329 333 336 337 336 335 335 335 334 333 332 332 335 335 335 334 332 330 329 328 328 327 326 324 325 325
338 340 335 338 339 332 327 332 333 334 336 336 333 332 332 336 337 336 335 336 336 334 334 331 333 335 335 334 333 331 331 330 328 329 328 326 324 323
338 336 336 335 334 338 341 335 330 333 336 337 336 335 333 333 336 336 336 336 336 336 333 331 331 332 333 333 334 333 332 330 329 330 329 326 323 319
346 343 339 336 333 332 334 339 343 341 335 336 338 337 336 335 334 334 335 335 336 336 335 333 333 333 334 335 334 333 332 332 332 331 330 325 320 315
348 346 346 345 343 341 338 336 335 341 344 340 336 337 336 334 333 334 334 335 336 336 337 336 334 334 334 334 335 334 333 332 330 327 324 321 315 307
348 348 347 347 346 346 344 344 342 339 341 342 344 339 335 333 332 333 334 334 333 336 336 336 336 335 333 334 334 334 333 332 328 325 321 316 309 306
348 349 349 348 347 347 347 347 346 345 343 343 344 340 341 340 340 336 331 333 334 336 336 337 337 336 335 333 333 334 333 329 326 318 318 315 308 307
353 352 350 350 351 354 355 355 353 349 349 348 347 346 345 345 345 345 337 335 335 336 337 336 338 337 336 333 331 331 330 329 325 316 318 313 310 309
358 357 357 359 360 360 360 358 357 355 357 356 355 353 351 351 351 350 347 337 335 337 337 338 338 337 336 333 330 331 331 328 324 318 317 313 311 310
360 360 359 360 360 360 360 359 358 357 356 356 356 356 356 355 353 352 350 345 338 336 338 338 338 338 336 330 328 330 332 330 324 318 316 313 311 311
360 360 360 360 359 359 359 358 357 356 358 359 359 357 356 355 353 354 354 351 347 342 339 339 338 338 337 330 330 330 332 324 321 317 315 312 311 310
361 362 361 361 362 363 363 362 362 362 360 359 359 359 357 357 354 353 352 352 348 343 341 339 338 338 337 328 328 330 328 325 321 317 314 312 311 310
362 362 362 363 364 361 361 358 359 360 361 361 361 359 358 358 356 356 354 351 349 346 344 342 340 339 330 327 329 332 330 324 320 316 312 311 310 310
360 361 360 360 359 358 358 358 357 355 355 356 357 357 356 356 355 353 352 351 345 347 342 343 340 339 333 329 331 331 327 323 320 314 312 311 309 310
359 358 356 353 350 350 352 355 358 357 354 353 353 350 354 353 352 352 351 349 346 343 342 339 339 336 330 330 332 331 324 324 314 312 310 308 310 311
351 345 338 334 332 335 339 342 343 339 335 334 333 335 336 343 350 343 348 345 345 344 342 339 335 334 330 330 330 326 319 315 312 309 308 310 311 311
331 331 331 332 333 334 334 332 331 331 332 332 333 332 337 338 338 337 340 341 343 342 341 333 332 335 330 328 325 322 318 313 308 309 310 311 311 309
330 330 330 331 332 333 332 331 332 334 333 331 331 333 334 331 331 334 336 337 339 340 338 330 330 332 329 327 324 320 313 310 311 311 311 311 310 309
333 333 333 333 333 333 333 334 334 334 331 330 330 329 326 328 330 332 331 330 330 331 331 329 330 328 329 326 321 318 314 312 312 312 311 310 310 309
333 334 335 334 334 335 335 334 333 333 333 331 330 329 327 328 329 328 327 325 325 326 330 330 327 326 323 321 320 317 315 313 311 311 311 311 310 309

GFSNE_850_thetae_039.txt.gz
Theta_e
339 340 342 338 337 339 340 340 339 339 338 335 337 337 337 336 336 335 334 334 333 331 327 327 326 326 326 326 326 327 327 327 324 324 323 324 325 324
342 338 340 340 338 340 340 340 340 339 338 335 334 336 337 337 337 335 335 334 334 333 332 326 327 326 327 327 329 330 328 329 327 324 322 322 321 320
342 341 335 333 336 337 338 339 339 338 337 332 331 333 335 336 336 336 335 335 334 334 334 333 328 328 329 333 333 331 330 328 325 325 325 324 322 323
340 341 340 339 330 328 333 335 337 336 337 334 332 332 331 331 333 335 336 335 335 335 334 333 331 331 331 334 335 333 331 330 329 328 326 328 327 325
348 343 335 337 337 331 327 327 330 334 336 336 333 333 334 333 331 331 335 336 335 335 335 333 333 331 332 333 334 334 333 331 330 329 328 328 328 326
349 349 345 336 335 334 334 335 334 331 329 331 332 332 334 335 335 333 332 334 335 335 335 335 333 332 329 330 332 334 333 333 332 331 329 330 330 328
348 348 346 342 338 335 335 334 335 338 342 340 337 334 333 333 334 332 334 332 332 334 334 335 335 334 332 331 332 333 334 333 333 332 332 331 329 325
346 345 345 346 345 345 344 343 341 339 339 341 343 345 342 340 336 334 334 336 335 332 334 333 334 336 335 333 333 334 334 334 334 333 333 331 326 321
346 346 345 344 346 347 348 349 349 348 347 345 344 343 340 338 341 344 340 336 335 333 334 332 333 334 336 336 334 334 334 334 334 333 330 326 323 317
338 338 341 342 345 347 349 350 350 350 351 350 350 348 347 345 346 346 345 347 344 340 337 336 335 334 334 336 336 334 333 334 334 333 329 323 318 314
343 345 347 349 351 353 355 356 355 355 355 355 355 354 353 354 353 353 353 350 349 348 346 341 337 334 334 335 336 336 334 333 333 332 328 319 317 313
356 357 357 357 358 358 359 358 357 358 357 356 356 355 354 354 355 356 355 346 346 344 346 343 343 338 335 335 336 337 335 334 329 330 328 319 317 314
360 360 359 359 358 359 358 358 357 356 356 357 358 358 358 356 355 354 354 354 353 351 350 344 342 340 338 336 337 337 336 334 328 327 328 320 318 314
360 358 358 358 358 359 360 360 361 362 363 362 361 361 359 358 356 355 355 355 356 355 355 349 346 342 339 336 336 337 336 334 329 328 328 322 317 313
359 359 359 362 362 360 359 361 364 365 363 358 357 359 357 358 358 359 358 357 357 356 355 354 351 347 339 337 336 336 336 334 329 329 328 321 318 313
360 360 361 361 361 361 363 363 361 358 357 356 356 355 355 353 354 354 353 352 350 348 349 351 351 350 340 338 336 336 335 333 329 330 327 320 316 313
361 362 361 361 359 358 358 357 356 354 355 355 353 351 349 342 342 337 338 343 348 347 347 346 346 347 346 343 336 333 336 331 330 329 325 317 315 312
360 360 357 355 354 354 352 349 346 345 348 348 346 339 334 332 332 333 336 338 341 344 344 343 344 343 339 336 336 331 333 329 330 330 324 317 315 311
356 350 350 346 339 333 332 333 334 334 333 333 333 332 331 332 333 330 331 331 332 333 334 337 342 341 333 331 329 330 334 330 331 325 318 316 313 311
338 335 332 331 332 333 334 332 332 332 332 332 333 331 330 329 329 330 330 330 331 333 334 337 338 339 337 334 323 327 330 331 327 317 314 312 310 309
330 330 330 330 330 330 330 331 331 332 333 333 332 330 329 329 327 329 328 329 328 328 328 328 329 330 331 328 329 327 326 324 322 317 313 310 310 311
333 333 333 333 333 333 334 334 334 333 333 333 332 331 330 329 327 327 326 327 325 323 324 327 325 326 327 329 328 324 317 316 311 311 309 307 308 310
333 332 333 333 334 333 333 334 334 333 332 332 334 334 333 329 327 329 325 324 329 327 325 327 327 326 323 320 319 318 317 310 309 310 310 311 310 310

GFSNE_850_thetae_042.txt.gz
Theta_e
337 340 342 342 339 339 336 339 340 340 338 335 335 335 337 337 336 335 334 334 333 332 332 328 326 326 326 326 326 326 329 328 328 327 325 323 322 322
345 343 340 338 342 340 339 340 340 340 339 334 333 334 333 334 336 337 336 335 334 333 333 333 330 327 327 326 326 327 330 329 328 325 322 322 321 320
340 341 341 340 336 341 340 338 338 339 339 333 333 332 331 330 331 332 335 336 335 335 334 333 333 333 329 328 328 332 333 330 329 327 327 325 326 327
343 340 338 341 338 333 333 332 334 334 335 333 330 330 331 332 333 332 330 331 334 334 335 335 334 333 333 330 329 332 334 334 331 330 329 327 327 328
348 348 346 342 338 338 338 335 329 327 327 328 327 327 327 329 330 331 332 332 331 330 334 335 335 335 333 332 331 332 335 334 333 332 331 329 328 328
349 348 348 346 342 337 334 334 335 336 338 340 337 335 334 332 332 332 332 332 333 333 331 332 334 335 335 334 332 331 331 333 334 334 332 331 330 329
349 348 346 343 340 340 341 335 334 333 334 335 335 335 333 334 335 337 340 339 338 336 335 334 332 333 334 335 334 331 329 331 332 334 333 332 332 331
340 340 342 342 341 342 343 344 346 347 348 347 346 345 344 343 342 340 340 341 341 339 338 337 336 334 333 333 334 335 333 331 332 334 334 333 333 332
337 337 337 337 340 341 342 344 346 349 351 352 352 351 350 350 350 350 350 349 348 348 348 348 347 344 341 338 334 334 336 335 333 334 334 333 333 332
333 334 336 335 336 338 339 340 342 345 349 351 354 353 355 356 357 356 356 355 353 353 353 350 351 350 349 346 342 336 334 335 335 332 334 334 333 331
336 336 337 338 340 341 344 348 350 352 354 354 355 355 355 355 355 356 355 353 353 353 353 350 351 350 349 349 349 345 336 334 336 334 332 334 333 328
348 348 349 351 353 355 356 358 359 357 356 356 355 354 354 354 354 354 353 354 354 352 352 349 351 346 341 348 346 344 344 335 336 335 333 332 332 327
357 358 358 359 359 358 356 356 356 356 357 358 358 360 359 357 356 355 355 356 357 356 355 352 351 348 344 346 347 344 342 343 336 336 335 333 329 326
360 360 361 359 357 357 357 357 359 361 361 361 361 359 359 358 358 358 356 356 354 352 351 353 352 349 346 344 341 341 345 343 337 336 335 334 329 327
361 361 359 360 362 364 363 363 363 365 361 362 360 359 357 355 356 353 351 350 347 345 345 348 350 345 347 346 344 342 338 342 339 336 335 334 329 327
358 358 360 361 360 361 363 364 362 360 358 356 354 354 354 351 348 346 340 335 332 333 333 333 335 338 342 344 344 343 339 336 339 335 334 333 328 327
359 359 361 362 362 362 362 359 355 355 355 353 351 350 344 341 335 333 332 332 331 330 330 330 331 334 338 340 342 343 341 339 334 333 332 329 328 327
359 361 363 361 358 356 353 352 350 347 342 341 339 335 333 332 332 331 330 329 329 329 329 329 330 330 332 334 339 341 341 339 331 333 333 330 328 324
361 361 359 356 351 349 342 335 332 333 332 331 332 332 332 331 330 330 330 328 328 328 326 327 328 329 330 335 337 337 338 334 329 322 326 329 328 323
352 347 346 342 335 332 332 333 332 332 331 331 332 332 332 331 331 331 328 327 327 326 324 326 328 328 329 329 328 324 325 327 325 326 329 328 326 322
338 335 331 330 330 330 330 331 332 333 333 333 333 332 332 332 332 329 328 327 325 327 324 324 328 326 325 323 323 322 322 324 328 329 328 325 320 314
333 332 332 332 333 333 333 333 334 334 334 333 332 331 332 332 332 328 328 326 325 328 326 325 326 329 326 326 326 325 323 323 323 322 322 320 315 312
332 332 331 331 332 332 332 332 333 333 334 333 334 332 333 333 332 329 329 328 327 328 327 326 325 326 326 324 322 319 319 317 315 313 312 312 312 310

GFSNE_850_thetae_045.txt.gz
Theta_e
346 343 340 342 343 339 339 338 341 342 341 340 335 335 335 336 337 337 336 334 333 333 332 332 331 328 326 326 326 326 326 328 329 329 326 322 320 320
341 345 339 339 339 340 340 339 339 341 342 340 336 332 332 331 331 333 334 336 336 335 334 333 333 332 332 328 327 326 326 327 330 329 327 326 325 322
343 340 342 343 342 339 337 340 339 339 339 338 334 330 330 331 332 332 331 330 331 333 335 335 334 334 333 333 332 328 327 330 331 331 330 327 328 325
343 343 341 339 339 341 340 334 332 333 333 328 327 327 326 327 328 329 330 331 332 332 331 331 334 335 335 334 334 333 330 329 333 333 332 330 329 327
346 347 346 346 344 341 337 337 337 336 336 334 331 332 331 333 332 332 333 333 332 332 332 332 333 332 333 335 335 334 332 330 330 334 334 333 331 330
346 347 347 347 345 343 343 340 339 338 337 335 334 337 337 333 332 332 333 333 335 335 335 336 337 336 335 333 334 335 335 333 331 331 333 334 333 333
345 345 345 343 344 344 345 344 345 345 345 348 349 348 348 348 347 347 347 347 347 347 346 344 343 341 340 338 336 334 334 334 334 329 330 333 333 333
337 339 341 341 341 341 343 345 348 348 346 348 351 352 350 350 352 351 352 351 351 351 349 349 350 350 350 349 347 343 337 334 334 334 329 330 332 333
331 331 331 332 332 333 335 337 340 344 347 348 348 348 348 350 352 354 355 355 354 354 353 352 350 350 350 350 351 352 350 344 335 334 334 331 332 333
332 331 331 331 332 332 333 334 335 335 336 338 340 343 348 353 356 356 356 355 355 355 352 351 351 350 350 349 351 352 351 348 346 336 335 335 333 334
332 332 332 332 333 333 334 336 337 340 344 347 353 355 356 355 354 356 355 356 356 354 352 351 352 351 351 350 348 348 348 346 348 346 336 335 335 334
336 336 336 337 338 341 345 349 352 355 357 356 357 356 355 356 356 356 357 357 358 356 355 356 355 352 349 347 346 347 346 346 343 346 344 337 335 335
352 353 354 355 356 357 358 358 357 356 355 356 356 357 356 356 359 359 358 358 357 356 353 352 350 348 346 348 343 344 342 343 344 343 344 343 336 335
357 357 358 359 359 360 358 356 356 356 357 360 357 359 362 360 360 358 355 354 353 350 348 343 340 340 339 338 339 338 339 343 341 342 343 343 341 335
359 359 360 361 360 358 358 360 363 362 362 359 360 361 359 356 355 355 353 345 339 335 335 333 334 334 336 339 340 338 338 341 342 342 342 341 342 336
360 360 361 358 360 360 361 361 361 361 361 360 356 355 354 353 351 341 335 333 332 331 330 329 328 327 328 328 332 332 333 336 340 339 340 340 340 337
360 361 361 360 361 362 362 363 362 362 357 353 353 352 349 338 334 332 332 331 333 331 330 328 326 326 328 329 331 332 333 335 336 338 340 334 332 332
359 360 361 360 360 362 361 359 354 351 350 347 341 336 333 332 332 332 331 332 331 328 328 326 326 327 327 327 327 326 327 328 331 335 335 330 326 323
360 361 360 362 361 359 355 348 344 341 335 332 332 332 332 332 332 332 333 332 331 327 327 326 326 326 326 324 324 323 321 323 327 331 329 324 321 316
359 360 358 355 350 344 340 336 333 332 332 331 331 332 333 332 332 333 332 329 328 327 328 326 326 326 326 324 322 323 321 321 324 325 324 320 318 322
352 348 344 341 339 335 332 331 331 331 333 333 333 333 333 332 332 331 331 328 327 327 326 327 325 327 326 325 325 324 323 321 321 323 321 321 321 319
343 340 336 333 332 331 332 333 333 335 335 336 334 334 334 333 332 333 332 328 329 327 327 326 325 325 324 325 324 325 324 323 323 324 323 321 319 319
335 333 332 331 330 331 331 332 332 332 331 332 333 332 331 331 331 331 333 334 329 329 327 325 324 323 323 322 320 321 324 323 321 322 321 319 314 311

GFSNE_850_thetae_048.txt.gz
Theta_e
353 350 348 346 347 345 344 343 343 343 342 344 340 340 338 341 341 335 336 336 336 336 334 333 333 332 331 329 326 326 326 326 326 329 329 327 324 324
351 352 349 347 348 348 347 345 344 343 342 341 342 342 341 337 339 331 331 331 330 330 334 335 335 334 334 333 333 331 328 327 326 327 330 329 327 327
353 352 350 349 350 348 348 347 346 345 343 341 340 341 337 328 327 330 329 329 333 331 331 331 331 332 334 335 334 334 333 332 329 327 330 331 330 327
353 353 352 351 340 340 349 350 346 345 344 343 344 343 342 342 336 331 333 338 341 339 336 332 332 332 332 332 332 334 335 334 333 331 328 332 332 331
354 354 353 353 353 349 352 351 350 353 352 352 349 347 346 346 347 347 346 344 342 343 342 339 337 336 336 336 335 334 333 334 335 334 332 330 332 333
353 354 355 354 354 353 353 354 354 353 351 351 349 347 345 345 347 349 349 350 349 349 349 348 347 346 346 345 342 338 337 335 334 335 334 332 330 333
353 352 349 350 348 347 354 354 355 354 351 350 348 349 349 350 351 351 353 353 352 353 352 353 352 351 350 348 347 347 347 344 340 335 335 334 333 331
349 347 343 343 340 341 344 344 346 348 351 354 351 351 351 353 353 353 352 352 354 357 359 357 355 355 355 354 352 350 348 349 349 347 338 335 334 333
344 346 347 349 347 341 337 334 335 336 339 341 343 345 344 347 349 353 354 356 358 359 357 357 357 355 355 354 353 352 351 350 350 349 347 344 335 334
341 346 338 333 339 347 352 352 350 347 343 337 335 335 338 349 356 356 356 355 355 356 355 355 356 355 356 354 355 354 352 349 348 347 346 347 345 336
331 331 332 331 330 330 331 332 334 338 348 348 347 349 356 357 356 357 356 358 356 356 358 357 356 357 355 355 352 348 349 347 345 343 343 344 345 344
337 332 331 331 330 331 332 334 336 342 354 358 360 361 361 361 356 357 359 360 360 358 357 355 354 354 349 346 345 344 344 344 344 340 339 339 342 344
349 349 350 347 338 343 347 350 352 356 358 359 360 358 359 357 359 359 360 358 358 356 354 355 349 346 345 344 343 342 343 342 342 342 342 338 340 341
349 352 357 359 357 357 358 358 359 359 358 356 356 357 357 359 361 362 357 357 355 353 347 342 343 344 340 337 337 335 336 336 337 338 337 337 340 339
353 359 360 362 360 359 360 360 360 358 358 359 360 364 360 357 356 355 353 350 344 343 341 337 337 335 334 333 332 332 333 332 332 331 330 336 336 340
356 356 357 358 359 360 360 359 361 362 362 361 359 358 356 354 354 351 344 341 340 339 338 336 332 328 330 328 329 331 327 324 325 326 329 333 337 337
357 358 358 359 360 360 358 359 362 363 360 360 356 354 354 351 345 340 340 339 338 338 336 334 332 328 326 325 328 327 326 326 325 327 330 334 334 335
357 359 360 361 360 361 361 362 362 360 356 351 349 348 344 340 340 339 338 337 338 337 335 334 332 328 325 325 326 326 326 325 324 325 327 330 333 330
360 361 362 366 365 361 361 359 354 349 347 343 341 341 340 339 338 338 338 338 337 334 333 334 332 328 326 326 324 326 326 324 323 323 323 325 323 319
363 363 361 361 359 355 350 345 343 343 342 338 335 338 339 339 338 338 337 336 334 332 333 333 331 327 326 325 323 325 326 323 323 320 318 317 315 314
350 353 354 354 354 351 345 341 338 334 332 332 333 335 337 336 336 333 335 334 333 331 332 332 330 324 325 326 324 325 325 323 321 319 318 316 315 314
350 349 347 345 341 338 336 333 332 332 332 333 333 334 334 333 334 334 333 333 331 332 330 331 330 328 328 327 326 324 324 323 321 320 319 319 319 317
343 340 339 336 334 332 331 331 332 332 332 331 331 330 331 330 330 331 331 331 331 331 333 332 331 328 326 324 323 324 322 323 322 320 318 316 315 313

GFSNE_850_thetae_051.txt.gz
Theta_e
353 352 348 348 347 346 345 345 345 346 345 350 342 344 340 342 343 340 338 334 330 330 332 333 335 335 334 334 333 333 332 329 327 326 326 328 329 327
351 352 352 351 349 349 348 347 345 345 344 343 344 343 344 343 341 341 339 335 331 330 331 332 331 331 332 333 334 334 334 334 333 330 327 326 329 329
354 354 354 352 352 348 349 348 347 347 346 345 343 343 343 344 339 339 339 341 346 345 343 341 340 339 334 333 333 334 335 335 334 334 332 329 327 330
353 352 354 354 349 346 351 350 349 348 348 346 347 348 349 348 348 347 347 349 348 346 342 342 344 344 342 339 336 335 335 335 335 335 334 333 331 329
353 354 354 354 354 353 353 351 351 352 355 355 354 352 350 350 348 348 348 351 352 352 351 350 350 351 351 350 351 348 347 344 338 335 335 334 334 332
354 354 354 355 355 354 353 353 353 351 353 353 353 352 349 347 348 350 352 352 353 354 354 353 354 354 355 354 353 352 351 350 349 347 342 336 334 334
354 354 354 354 355 356 357 356 356 356 356 353 351 349 348 349 353 353 352 354 352 349 351 357 359 358 357 358 356 354 354 354 354 352 351 348 345 336
354 354 353 354 354 352 348 344 346 349 349 354 352 350 350 351 353 353 352 350 353 358 360 359 359 358 357 356 355 356 355 354 353 353 352 351 350 347
349 349 351 352 352 351 348 344 342 342 343 340 340 339 339 339 340 343 352 356 359 359 357 359 359 357 357 357 356 355 353 353 351 350 350 348 348 348
346 346 343 341 344 352 354 355 354 350 339 346 350 347 346 347 353 358 358 358 357 357 357 357 359 359 359 357 353 350 349 347 345 345 344 343 344 345
336 334 335 337 334 332 335 337 336 336 344 345 347 349 352 356 358 360 358 357 359 358 358 358 358 356 353 350 347 346 344 344 343 343 343 343 342 342
343 336 333 332 332 332 333 336 339 342 348 350 354 359 360 361 359 359 360 359 359 360 358 356 356 354 348 342 344 341 337 337 336 336 338 339 339 339
350 347 349 348 346 345 344 344 342 342 347 357 360 362 362 361 360 359 359 359 360 360 355 357 353 348 345 342 336 335 334 332 331 330 333 337 339 340
345 345 346 347 348 350 354 357 357 357 357 358 357 361 358 357 356 358 358 356 356 355 349 344 345 344 341 337 335 333 333 330 327 327 327 328 328 329
339 349 348 349 354 359 361 361 359 359 360 360 359 358 361 361 358 356 355 354 351 345 345 342 340 336 334 335 333 332 331 326 326 325 326 327 331 334
340 343 348 354 358 361 362 361 359 360 360 359 360 361 361 359 357 353 352 350 344 343 342 340 337 335 335 332 328 331 327 326 325 325 325 326 328 333
349 351 354 356 359 360 362 361 360 360 359 361 362 360 355 353 353 351 346 343 342 341 341 340 337 335 334 327 328 327 326 326 325 324 324 323 323 326
356 359 361 360 360 362 364 364 360 360 361 362 359 353 351 350 347 344 342 341 342 341 341 337 337 336 333 330 329 325 326 326 324 323 323 321 320 319
361 360 362 364 363 361 360 360 362 360 357 354 348 347 346 345 342 341 341 341 341 341 338 336 337 335 333 330 328 323 326 325 323 322 322 320 317 316
361 358 360 361 361 360 359 356 351 347 346 346 346 344 342 342 342 342 341 340 339 338 336 336 336 335 332 330 327 325 325 324 321 321 320 320 319 316
361 358 358 358 355 353 351 347 347 344 343 340 336 336 339 338 338 338 337 335 335 333 335 336 334 334 331 330 330 329 324 324 321 320 320 318 317 315
351 347 345 345 346 344 344 341 338 336 334 333 333 333 334 336 337 335 333 333 333 333 332 333 333 333 331 331 330 329 324 323 322 320 319 318 316 314
344 341 341 344 342 337 335 333 331 330 330 331 330 331 332 334 333 331 332 332 336 332 330 331 331 333 332 330 326 326 325 323 322 322 319 317 314 315

GFSNE_850_thetae_054.txt.gz
Theta_e
344 337 344 348 347 346 345 345 345 345 346 349 342 343 343 343 343 343 343 337 336 334 335 333 333 333 333 332 333 334 334 334 333 331 329 327 326 326
348 355 351 342 349 349 348 348 346 344 345 344 345 344 344 344 344 343 341 343 345 341 338 343 344 342 341 340 339 337 335 334 335 334 334 333 330 327
352 352 353 349 351 350 350 348 347 347 347 346 346 345 344 343 342 345 348 347 347 350 349 346 348 350 349 347 347 348 347 343 339 336 335 335 334 333
348 354 355 354 343 345 350 351 353 351 349 348 342 340 348 351 349 349 347 348 350 352 354 353 353 353 351 351 353 353 352 351 350 349 345 339 336 335
355 350 349 349 350 351 345 348 346 350 353 354 357 357 352 350 350 348 347 350 353 353 354 355 353 353 357 357 357 356 356 354 353 353 352 349 345 341
352 351 351 351 350 350 348 347 350 348 349 352 351 353 352 351 351 354 355 353 351 356 354 347 350 356 356 357 358 356 355 353 353 352 354 353 351 349
349 352 352 352 352 352 353 352 353 356 356 357 358 357 353 349 347 347 347 352 344 339 350 360 360 357 358 357 355 355 354 353 354 354 352 351 352 351
350 346 353 355 355 353 351 352 347 352 353 353 350 345 341 341 339 339 342 343 348 355 359 357 356 356 357 357 356 355 356 355 351 348 347 346 345 346
352 351 349 349 351 350 349 348 348 346 343 342 343 341 341 344 345 346 351 355 357 358 357 357 357 357 358 360 359 349 343 344 344 342 341 342 343 343
345 348 348 345 346 353 355 356 355 353 351 351 353 349 351 346 350 353 355 356 358 358 357 358 357 358 358 353 339 345 345 340 339 338 336 337 335 335
341 341 346 351 343 337 341 349 352 351 348 344 345 346 350 352 351 356 358 361 359 359 357 360 358 356 354 341 347 346 332 330 329 327 327 327 328 329
343 339 337 336 336 337 337 336 335 332 335 338 341 344 347 355 359 362 360 359 357 358 359 358 355 355 350 344 341 331 328 326 326 325 326 326 327 327
345 342 338 334 337 343 345 346 346 348 351 353 354 352 356 358 359 359 356 357 358 358 357 356 353 345 343 339 330 328 326 326 325 326 326 326 326 326
347 350 348 346 347 346 346 347 349 353 357 358 357 357 358 361 360 358 359 357 356 355 353 345 346 343 340 335 331 327 326 325 325 325 325 325 325 326
347 347 345 345 349 349 349 351 355 358 361 360 359 359 361 358 358 359 357 355 353 350 346 344 342 341 338 335 333 327 328 324 325 324 324 324 322 322
347 345 346 345 346 346 347 349 356 359 361 359 359 360 359 361 361 355 353 352 349 346 343 342 342 341 337 335 333 328 327 325 324 324 324 323 322 321
348 345 341 343 347 350 351 354 357 359 360 360 360 359 360 361 354 352 350 347 344 342 342 342 340 338 337 336 333 329 327 323 324 323 324 324 323 322
360 360 352 347 349 351 356 359 359 358 359 358 361 359 359 352 351 349 346 344 341 342 342 342 341 337 337 336 332 330 325 323 323 323 323 323 322 322
362 360 357 361 361 362 361 359 358 358 358 359 358 351 348 348 347 344 342 342 342 342 342 341 335 337 337 335 332 330 327 328 323 322 322 321 320 319
358 362 363 360 363 361 358 358 359 359 356 352 351 348 347 345 343 343 343 342 342 341 339 336 336 337 336 335 333 329 330 329 325 322 321 320 319 318
348 342 351 360 358 357 358 357 354 351 350 348 346 345 342 340 341 341 341 339 337 334 334 333 334 335 334 333 330 332 331 330 324 321 320 319 318 317
351 344 352 354 353 351 350 349 348 347 347 344 340 337 334 335 334 335 334 334 334 334 333 332 330 331 331 333 332 332 329 327 326 321 319 317 315 316
344 343 345 347 345 345 343 341 339 337 335 333 332 332 332 332 333 331 332 332 331 331 331 333 329 329 331 332 333 331 328 327 326 324 322 320 316 314

GFSNE_850_thetae_057.txt.gz
Theta_e
340 342 340 342 345 346 345 341 344 344 346 346 343 343 343 343 344 344 343 342 346 346 348 345 343 345 345 344 343 342 341 341 339 336 335 334 333 331
348 337 335 345 347 349 348 345 346 346 345 345 344 346 348 345 346 345 342 346 347 348 350 352 353 353 351 346 348 351 351 348 347 346 344 340 335 334
350 346 351 347 345 349 349 348 347 346 345 339 341 343 344 345 344 344 348 348 347 350 352 353 354 354 353 352 352 353 353 353 352 350 349 348 346 342
351 349 351 354 351 348 351 351 350 350 350 350 348 347 352 344 347 348 349 351 350 354 352 355 355 351 349 356 357 355 355 354 351 353 354 353 352 350
352 353 347 353 354 349 345 348 350 351 351 349 349 350 344 350 352 353 354 353 351 348 352 354 352 344 357 359 356 357 353 353 353 353 352 353 353 352
347 347 348 347 348 348 347 346 344 345 345 347 348 347 351 352 354 352 343 337 334 336 343 346 354 357 357 355 355 354 355 352 354 355 349 347 347 345
341 346 347 348 348 348 349 349 348 348 349 354 355 355 355 355 346 339 339 340 340 346 355 356 356 355 356 356 356 355 353 354 348 344 344 343 342 341
339 340 339 344 348 350 352 351 348 347 346 351 353 351 339 338 341 346 343 348 351 356 357 356 356 356 357 357 358 356 346 343 342 339 339 337 335 334
339 338 339 341 342 345 346 348 347 349 349 348 347 341 344 347 345 346 349 351 354 356 357 357 356 357 356 355 351 345 342 341 336 329 326 326 325 326
346 343 340 338 337 339 342 353 353 352 352 351 351 350 351 346 349 350 351 354 357 358 357 357 356 356 355 350 340 339 342 333 327 326 325 325 325 325
347 346 344 340 336 339 343 343 349 345 344 346 349 350 347 343 347 351 360 360 359 358 356 357 357 356 354 348 340 340 329 326 326 325 324 324 323 323
347 346 345 344 341 339 339 337 336 332 333 335 340 344 347 350 351 353 358 361 358 358 357 357 356 354 347 342 338 331 327 326 325 324 324 323 324 325
345 344 343 343 342 340 339 339 339 343 347 348 350 354 356 356 356 357 359 359 358 359 357 357 354 346 344 340 338 332 327 326 324 323 323 323 324 324
344 342 342 341 343 342 341 345 346 347 349 350 352 357 359 357 358 359 361 358 359 358 354 350 348 346 342 340 337 332 328 326 323 322 322 323 324 323
345 345 345 346 349 353 351 350 349 349 349 351 354 359 359 357 359 359 360 360 353 353 349 347 344 344 341 340 337 334 330 326 322 321 321 322 322 321
352 352 352 352 351 350 350 347 345 345 349 354 357 359 359 359 358 360 355 352 351 349 345 343 342 341 340 339 336 335 330 326 324 320 320 321 321 319
352 354 356 355 353 351 348 348 349 348 352 356 358 358 356 360 358 354 351 351 348 344 343 341 341 341 340 338 337 336 331 328 328 325 319 319 320 318
355 354 354 354 352 349 348 347 347 351 353 357 356 357 356 356 353 351 350 347 344 343 342 343 342 340 338 337 337 335 334 329 329 328 321 319 318 317
358 354 354 356 358 358 354 350 351 354 358 357 355 356 356 351 349 347 346 343 341 341 342 342 341 340 335 337 336 334 331 330 330 328 321 319 317 316
355 356 358 359 357 358 359 358 358 357 356 356 357 356 351 349 346 346 343 343 342 342 341 341 339 335 337 335 334 333 330 331 330 327 322 318 316 315
355 355 355 353 350 349 350 352 352 352 353 355 353 350 347 346 346 343 342 342 341 340 338 334 332 330 330 330 331 332 331 331 329 327 324 321 319 316
355 353 351 347 343 344 340 343 346 348 348 348 347 346 346 343 339 338 338 336 334 333 333 332 332 332 330 330 330 332 332 332 329 328 326 324 321 318
352 350 348 343 342 338 336 336 335 344 344 345 341 338 336 333 332 331 331 332 331 331 331 330 331 331 330 330 332 331 332 332 331 329 327 325 322 320

GFSNE_850_thetae_060.txt.gz
Theta_e
344 344 343 343 342 345 344 344 342 344 345 346 344 344 343 344 343 344 343 343 346 347 348 349 351 350 351 350 350 350 350 350 349 346 345 343 340 342
338 342 341 340 343 347 347 346 346 345 344 345 344 344 346 347 346 345 344 347 349 350 349 351 352 352 353 350 351 352 353 349 351 352 351 350 348 345
346 344 334 335 344 347 349 348 347 346 346 343 343 342 342 341 343 347 349 350 351 351 353 351 354 355 352 351 359 358 353 354 350 352 353 352 348 348
345 347 342 345 340 343 348 349 349 347 347 348 346 343 343 346 346 350 351 352 352 347 342 344 353 346 348 359 359 356 354 350 348 350 351 348 351 352
349 349 348 348 349 348 344 347 349 350 351 351 349 348 343 340 347 349 350 352 340 337 340 347 350 357 358 356 356 356 354 354 354 355 354 349 344 343
345 350 351 352 347 347 348 345 344 344 343 345 346 343 341 347 347 346 344 339 340 342 352 356 356 355 355 356 356 356 353 353 349 341 340 339 339 339
335 341 345 346 348 347 346 344 345 345 345 345 344 346 346 337 338 339 343 346 344 349 355 355 355 356 356 356 357 355 352 343 339 337 331 327 326 325
333 337 338 338 342 345 348 347 346 348 349 347 345 343 336 338 340 350 349 347 350 351 355 355 356 356 355 355 355 351 347 341 336 330 326 326 325 324
337 335 334 339 339 339 339 344 348 348 348 348 349 346 346 344 349 352 354 349 348 355 356 355 354 355 355 354 349 346 343 339 330 326 326 325 324 322
339 338 335 335 336 338 340 340 339 340 347 351 351 348 349 345 353 352 348 348 354 355 359 358 356 354 354 353 346 343 342 335 326 326 325 325 322 321
340 340 340 340 339 340 341 340 338 334 333 337 339 339 343 349 345 347 350 354 355 357 356 358 357 353 352 348 344 339 332 327 326 325 324 323 321 320
340 341 342 343 343 343 343 340 338 331 332 333 336 339 342 346 350 354 355 354 357 359 355 358 356 353 346 343 341 337 331 328 326 324 322 320 319 319
340 341 341 341 343 342 343 343 340 339 339 339 344 346 348 350 355 356 356 356 358 356 355 358 355 354 347 343 340 337 333 330 327 325 322 319 319 319
338 339 342 342 342 343 344 344 343 342 344 345 347 348 348 351 357 358 357 357 358 357 359 354 351 348 344 342 340 339 334 331 327 326 324 320 318 318
340 341 341 342 344 344 344 344 345 347 349 350 349 348 348 352 358 358 359 357 356 354 352 350 347 344 343 342 340 338 334 332 329 328 326 320 318 317
346 346 346 347 347 348 349 349 349 348 349 349 347 348 350 355 357 358 359 358 354 350 350 347 344 341 342 340 339 338 336 334 331 329 326 321 318 315
344 347 349 351 352 353 354 354 353 352 351 348 348 351 355 354 354 355 357 354 350 348 347 343 342 340 340 339 339 337 336 334 329 329 326 322 317 314
353 351 352 351 353 354 355 356 355 353 352 351 350 353 354 354 355 355 356 351 349 345 344 342 341 341 341 340 338 337 335 332 329 329 326 323 319 316
358 359 359 357 353 353 355 356 356 356 354 351 351 356 354 355 356 354 350 346 344 344 342 341 341 341 340 339 337 334 334 331 330 330 327 325 322 320
356 359 355 357 356 356 357 357 355 355 355 355 352 351 352 354 354 349 348 345 343 342 342 341 340 339 338 335 334 332 331 331 330 330 328 326 324 322
356 356 353 354 356 357 357 356 358 356 352 346 336 339 349 348 347 345 344 343 342 341 340 340 337 334 331 329 328 328 329 332 331 331 328 327 325 324
357 356 353 356 356 354 353 350 350 346 340 336 336 335 343 345 347 345 343 341 340 339 336 334 333 332 332 331 329 330 330 330 331 331 330 328 325 323
355 354 352 351 353 350 346 344 339 337 337 336 336 341 345 345 344 338 335 333 332 332 331 331 331 330 331 330 328 328 330 330 329 329 330 329 327 324

GFSNE_850_thetae_063.txt.gz
Theta_e
342 343 344 343 343 344 345 343 342 343 344 346 344 344 343 345 345 345 344 343 346 349 351 350 351 351 352 353 349 350 355 352 349 350 349 349 348 344
340 343 343 343 342 342 347 346 345 344 344 344 345 344 343 343 345 350 348 346 349 351 351 351 349 348 354 352 347 357 357 353 352 348 350 350 351 349
335 340 338 340 339 341 346 348 347 345 343 342 342 341 342 343 344 343 348 350 351 352 348 337 338 341 348 355 357 357 355 354 350 349 346 351 349 349
341 342 344 340 336 337 344 346 348 348 348 345 344 345 344 344 341 341 349 349 352 343 339 347 355 356 356 356 356 355 355 353 352 351 350 346 342 341
344 345 346 344 344 344 342 342 345 347 349 348 348 347 344 341 337 344 339 339 336 339 345 355 355 355 356 356 355 355 355 351 351 345 340 336 330 329
339 341 346 348 348 347 347 349 347 344 344 344 342 340 338 338 345 336 333 338 339 339 351 355 355 356 356 356 356 357 354 350 344 339 334 326 325 324
337 335 337 345 349 349 348 345 347 346 345 345 343 341 337 336 337 341 346 347 340 341 351 354 353 354 355 355 355 354 348 343 339 332 326 326 325 323
340 339 335 335 337 343 344 344 345 347 346 345 346 344 339 338 340 347 349 351 351 339 351 353 355 355 355 355 354 351 342 342 336 327 326 326 325 324
339 338 339 337 335 337 338 338 339 341 344 348 348 342 343 341 347 347 348 350 346 347 353 353 354 356 354 353 353 347 343 338 330 327 326 325 325 322
341 339 339 339 339 338 337 340 340 339 339 341 341 344 348 344 346 349 349 345 348 352 353 355 355 355 354 352 351 344 339 333 328 327 326 325 324 322
333 337 338 338 339 340 343 342 338 334 334 337 336 338 338 339 341 344 345 350 354 353 353 356 355 356 353 351 346 342 338 332 329 327 326 326 324 324
331 331 334 336 338 340 344 345 344 334 333 333 336 338 339 341 345 346 349 354 354 355 354 357 355 353 353 348 343 341 338 334 331 328 327 326 324 325
332 331 329 333 336 338 340 344 342 339 340 341 343 342 341 344 346 348 352 353 357 355 356 356 353 355 353 349 345 341 338 335 332 330 328 327 324 324
338 334 329 331 333 337 340 341 342 344 345 344 345 342 342 345 346 349 351 355 355 355 355 356 356 353 349 346 344 340 339 337 333 332 328 326 324 320
342 341 333 331 334 338 341 342 344 345 345 345 344 343 345 347 347 349 351 354 354 354 354 355 351 349 345 343 344 340 339 338 334 331 328 325 324 318
343 341 338 337 337 340 343 344 346 346 346 346 347 349 349 348 345 350 351 354 355 355 355 350 349 347 344 342 342 339 339 337 335 330 327 325 323 320
342 345 345 344 343 344 344 345 347 351 351 349 351 352 349 347 351 353 355 353 353 355 351 349 347 345 342 340 339 339 339 337 334 330 328 326 324 322
353 351 347 345 343 343 344 346 348 353 354 354 354 352 350 349 354 355 352 353 352 353 351 348 344 343 341 340 340 339 338 336 334 331 329 327 326 323
357 356 355 352 346 343 345 347 349 352 354 356 356 355 352 349 357 352 352 353 353 351 347 344 343 341 341 340 340 339 337 334 333 331 329 328 327 325
359 359 357 353 352 353 354 354 352 353 355 356 356 354 350 356 352 349 348 350 350 348 346 344 343 342 341 339 338 336 331 328 328 331 331 329 327 327
359 359 356 354 352 355 355 355 353 351 353 354 353 350 352 349 344 342 343 346 347 347 346 344 342 340 339 338 334 331 329 328 329 330 331 331 329 328
359 357 357 355 350 350 350 349 349 352 352 353 351 352 345 338 338 342 344 346 346 345 344 341 338 336 334 333 332 331 330 329 329 330 329 330 330 328
356 356 358 356 354 354 353 350 350 349 350 350 350 347 338 334 339 344 344 344 340 338 336 334 333 331 331 331 330 330 328 326 327 327 325 326 327 328

GFSNE_850_thetae_066.txt.gz
Theta_e
342 343 343 343 343 342 343 344 343 342 342 345 345 344 343 342 343 343 346 345 347 349 350 349 346 337 336 341 351 348 357 355 351 351 349 348 348 350
341 341 342 343 343 342 342 345 346 346 344 342 343 344 343 341 343 344 342 346 350 350 351 338 341 350 349 350 356 355 355 354 353 351 350 348 349 351
337 337 340 341 342 341 340 343 346 348 347 344 343 341 342 343 341 338 338 349 348 348 338 340 353 355 355 355 354 354 355 355 352 349 348 340 335 333
342 338 336 337 337 338 337 339 344 345 347 346 345 343 343 343 338 336 344 341 337 336 338 351 354 355 355 355 355 355 355 354 352 346 336 335 327 325
342 343 345 345 346 341 343 343 343 343 345 345 344 345 342 337 335 338 336 331 335 336 337 353 354 354 354 355 355 355 355 352 350 339 332 326 325 324
337 340 343 345 346 345 346 346 347 348 349 346 343 341 340 338 338 337 333 337 333 335 337 352 353 354 354 354 355 354 354 346 340 336 329 325 324 323
344 338 336 336 339 346 348 348 348 346 345 345 343 342 339 339 340 342 344 342 334 336 342 351 353 354 355 354 354 352 350 342 339 332 326 326 325 323
345 344 344 341 339 336 338 343 345 344 343 344 343 341 340 342 340 348 347 346 344 338 347 351 353 353 354 352 352 352 347 340 335 328 327 326 325 324
344 343 341 341 340 341 338 337 339 339 339 341 340 341 339 338 347 348 346 345 343 343 351 351 352 354 354 352 352 351 345 339 333 330 328 326 326 324
332 335 341 342 340 340 341 341 339 336 339 340 340 338 336 338 347 347 343 341 342 349 354 353 351 354 353 354 350 349 344 340 334 331 328 327 326 325
332 327 328 333 332 336 340 340 341 336 335 336 336 335 336 337 341 342 342 345 346 353 352 353 353 354 353 351 351 349 344 340 337 332 330 328 326 325
327 326 324 324 326 329 333 337 341 335 336 336 336 336 338 339 342 344 343 344 349 353 352 354 352 352 353 352 349 348 344 340 338 334 331 328 325 324
326 324 324 324 325 327 329 333 337 338 340 342 341 341 342 342 343 343 344 347 349 351 352 355 353 354 355 353 351 347 344 339 338 336 332 327 325 324
334 330 331 329 328 329 329 330 334 338 342 344 344 342 340 339 338 342 346 348 349 350 352 353 354 351 357 350 348 345 343 340 338 335 333 327 325 324
343 339 338 338 337 335 332 329 333 337 341 344 344 341 338 340 342 346 348 347 349 351 351 352 353 354 351 349 345 343 344 339 338 337 333 328 326 325
345 343 342 342 341 337 335 332 333 336 340 343 344 343 342 344 344 348 348 345 350 350 352 352 353 351 348 347 344 342 341 339 338 337 334 329 327 326
350 348 345 342 340 339 336 333 334 337 342 343 344 345 347 347 348 350 348 347 351 351 352 352 352 348 347 345 343 340 339 339 338 337 334 331 328 327
352 352 351 350 346 340 336 334 334 336 338 342 344 348 350 351 351 350 348 352 351 353 349 352 352 349 346 344 342 340 339 339 338 336 333 330 328 327
353 354 354 353 352 349 343 339 337 337 339 342 345 348 352 354 355 353 350 353 355 353 352 352 352 349 344 342 341 340 341 339 337 333 329 329 330 328
354 355 356 356 355 354 351 348 342 341 343 344 348 352 351 353 353 354 352 349 353 351 349 349 349 344 343 342 341 340 339 338 332 328 327 329 330 330
356 355 355 357 356 355 354 353 351 351 351 351 351 351 352 354 355 354 352 349 350 348 349 349 346 343 341 340 340 338 336 333 331 328 329 329 329 329
356 355 354 355 358 356 355 353 352 352 353 352 352 350 350 350 352 352 349 349 347 348 348 347 343 341 339 337 337 335 332 331 329 327 326 327 326 326
357 357 355 355 356 356 356 355 351 350 350 348 348 347 348 348 347 348 343 336 337 344 343 342 340 339 336 334 332 331 331 329 328 326 324 324 326 325

GFSNE_850_thetae_069.txt.gz
Theta_e
342 342 342 343 343 343 342 344 345 347 346 346 346 344 344 343 341 341 339 337 345 348 346 342 337 350 353 354 355 355 355 354 355 353 351 350 348 347
337 341 342 343 343 343 342 341 343 347 348 346 345 341 342 342 343 340 338 335 342 343 337 336 346 354 354 354 354 354 354 355 354 351 346 339 334 330
339 338 340 340 342 342 341 340 340 343 349 349 343 343 341 341 341 337 334 340 337 332 338 336 353 354 354 354 354 355 355 355 350 350 337 330 326 325
340 342 336 336 337 339 338 337 337 339 343 349 349 346 342 342 337 335 335 335 331 338 335 341 353 353 352 353 354 355 355 353 350 341 335 327 326 325
343 340 340 341 340 343 345 341 345 342 342 343 347 348 339 339 335 335 333 332 335 339 339 343 352 353 353 354 354 354 352 349 342 338 331 326 326 325
345 341 340 341 344 345 345 345 346 346 349 347 351 351 350 343 337 343 346 348 337 332 339 349 352 352 351 354 353 351 350 344 339 332 328 327 326 325
345 344 337 334 335 338 343 347 349 349 353 352 352 351 351 351 349 350 350 352 339 333 337 351 356 353 352 353 353 351 351 344 337 331 329 328 327 326
345 345 344 344 343 339 336 336 338 342 346 351 351 350 351 348 350 349 350 352 350 348 338 351 356 353 352 353 352 351 350 344 339 333 330 329 328 326
339 342 344 344 341 339 338 340 339 337 338 339 339 337 338 336 339 337 349 352 350 346 350 355 358 355 351 352 352 350 350 345 342 337 332 330 328 325
337 337 334 333 338 339 341 340 339 339 338 338 335 333 335 337 339 344 344 341 339 344 350 354 357 356 352 353 352 351 350 346 344 338 335 331 327 325
334 333 333 333 329 329 337 339 337 336 338 338 337 334 334 336 339 341 346 349 347 347 353 352 356 355 352 352 351 349 349 346 343 338 336 332 327 324
329 328 327 329 328 328 327 330 332 331 334 336 337 337 339 339 339 340 342 349 348 349 352 350 355 355 356 353 352 350 349 347 344 338 337 332 327 325
345 341 329 323 323 324 325 325 325 327 330 333 337 340 342 342 341 340 341 343 349 349 353 350 354 356 354 352 349 351 349 346 343 339 337 334 328 325
348 347 342 333 327 325 324 324 325 326 330 334 344 347 346 347 346 342 340 341 343 345 349 349 351 353 356 353 353 350 348 344 343 339 337 335 330 326
348 346 344 341 337 333 332 334 331 331 334 334 338 340 343 343 342 342 341 342 344 347 347 348 350 351 352 352 353 352 347 344 343 339 338 336 332 327
351 348 344 343 342 340 340 340 342 341 337 333 332 335 338 340 340 341 343 344 348 346 347 345 349 352 353 353 354 351 347 344 341 338 338 336 333 329
352 351 349 347 343 344 344 344 343 340 338 332 332 335 337 339 340 341 344 345 351 352 353 352 349 352 352 354 353 349 348 343 340 339 338 336 333 329
352 352 351 351 350 348 345 344 342 339 334 332 332 335 338 341 343 345 348 351 353 353 350 352 353 353 350 352 350 347 344 342 340 339 338 335 332 328
352 351 352 352 352 351 351 350 350 349 344 336 335 336 337 340 343 347 353 354 354 354 353 351 352 353 350 350 348 346 343 341 340 339 337 333 329 329
353 352 352 353 353 353 353 353 352 352 351 346 341 339 340 342 344 347 349 353 353 352 352 351 351 351 348 347 348 344 343 341 340 337 332 329 328 328
353 352 353 354 354 354 355 355 355 354 354 354 351 350 349 348 348 351 352 352 353 353 353 353 350 348 347 346 344 341 341 340 338 335 332 330 331 329
354 353 353 354 355 355 354 355 356 356 354 354 353 351 352 353 351 351 350 350 350 353 353 353 349 348 347 346 342 340 339 338 334 332 330 328 329 328
355 355 354 354 355 355 355 354 354 355 356 355 354 352 353 352 352 350 349 348 348 352 349 340 338 342 343 342 340 339 337 333 332 330 328 326 324 323

GFSNE_850_thetae_072.txt.gz
Theta_e
348 343 347 348 349 349 349 349 348 346 346 349 348 351 351 352 353 344 351 342 339 341 334 336 334 348 353 353 354 355 355 355 354 351 342 335 331 328
346 350 345 347 348 348 348 348 349 348 347 349 349 351 349 349 351 340 345 346 350 345 338 335 334 349 352 352 353 354 355 355 351 350 338 329 326 326
348 350 348 348 347 347 349 349 349 349 347 347 350 352 348 347 341 338 345 347 347 347 341 335 338 352 352 353 354 354 354 353 349 341 334 327 326 325
351 350 350 348 342 344 349 350 349 350 349 349 349 351 354 351 346 335 350 349 348 350 343 343 344 351 351 353 353 352 351 348 340 337 330 327 327 326
352 351 351 351 350 347 351 349 349 351 351 351 351 350 351 353 353 350 350 352 350 348 347 345 351 352 351 352 352 352 351 348 339 333 329 328 327 327
354 353 351 351 352 352 351 352 352 351 349 351 350 350 350 351 352 351 349 349 351 350 349 347 353 356 354 352 352 351 350 349 338 335 331 329 329 327
355 354 352 348 345 348 352 352 353 353 350 350 350 350 350 350 352 348 349 348 349 350 353 348 351 355 359 350 352 352 350 350 341 341 336 331 330 326
353 353 347 346 339 337 335 334 340 350 353 352 350 350 351 352 350 348 349 347 348 349 349 347 350 355 360 354 352 351 351 350 347 344 338 334 331 326
353 352 353 349 347 344 341 338 337 337 336 336 344 345 346 348 349 352 349 351 349 350 347 346 349 354 357 355 352 352 351 350 349 346 340 335 331 326
350 352 351 348 350 351 346 349 344 342 337 337 337 335 336 340 341 350 351 348 350 351 348 350 351 351 361 356 352 352 350 348 348 347 341 337 333 327
344 346 349 350 346 339 338 348 349 349 346 344 337 336 337 335 336 342 346 345 343 343 343 345 350 351 358 358 353 352 351 348 349 347 341 337 334 329
337 335 334 338 342 340 336 335 338 339 346 346 347 344 335 337 337 337 340 345 342 341 342 347 349 349 352 358 356 352 350 350 349 346 341 337 336 331
347 344 342 341 332 328 329 331 332 336 340 343 345 344 344 348 352 348 340 342 342 341 341 346 348 349 351 354 355 355 350 351 348 346 343 338 337 333
348 348 348 347 346 345 341 331 327 327 336 337 338 339 340 342 344 347 350 349 345 341 338 343 348 349 350 351 352 353 355 349 347 344 341 339 337 335
350 351 351 351 351 350 349 344 341 337 335 337 338 339 339 339 341 344 348 352 353 345 340 339 345 354 355 353 354 354 353 352 347 345 342 338 338 337
351 351 351 350 350 350 349 347 345 340 340 342 342 340 341 340 341 345 348 348 349 349 350 350 347 348 352 354 355 354 353 353 349 345 343 338 338 337
352 352 352 351 352 351 350 349 349 346 339 345 346 346 344 342 342 344 346 347 347 347 346 347 351 352 349 348 352 352 352 353 352 347 343 339 339 336
353 351 353 354 353 353 352 350 350 349 350 350 349 348 346 344 343 344 346 347 348 348 347 348 350 353 353 349 349 352 351 352 350 348 343 340 340 339
353 352 354 354 355 355 355 353 352 350 350 350 349 349 347 346 345 345 345 348 350 350 350 351 353 353 354 353 351 351 350 350 349 345 342 340 339 337
352 352 352 355 356 356 357 357 355 356 355 353 353 352 350 349 348 348 348 349 350 351 353 353 354 354 353 353 352 352 349 348 348 344 342 340 337 335
350 351 352 352 354 355 355 355 356 357 358 357 357 356 354 353 351 351 349 349 351 352 352 354 353 352 352 352 351 351 347 346 344 342 340 340 338 336
350 351 350 352 352 353 354 354 355 356 356 356 356 355 355 355 356 355 355 354 355 355 355 354 355 353 352 353 351 349 346 344 342 340 339 336 334 333
346 350 347 349 353 355 354 354 355 355 356 356 356 356 356 356 356 356 359 360 361 356 353 352 351 352 350 351 347 346 345 341 341 339 337 333 331 329

GFSNE_850_thetae_075.txt.gz
Theta_e
348 338 347 348 345 348 346 348 350 348 346 353 348 352 352 351 353 352 352 352 350 350 346 334 331 341 351 352 353 354 354 355 351 350 339 330 326 326
347 346 340 349 347 347 347 348 348 349 349 349 349 351 353 347 354 351 345 349 350 348 347 344 335 345 351 352 353 353 353 353 350 339 335 328 326 326
347 350 351 345 350 347 346 347 348 349 348 347 350 352 356 352 355 336 349 349 349 350 350 346 343 347 351 351 352 351 351 348 339 336 329 327 327 327
351 350 350 349 345 343 351 349 349 351 351 350 350 349 351 353 354 349 352 351 352 353 349 348 345 349 351 350 352 351 350 349 339 334 330 329 328 328
352 352 351 352 351 350 350 348 350 351 352 353 352 351 351 351 353 354 352 352 351 350 349 350 348 348 356 354 351 351 350 349 342 338 335 331 330 327
354 352 352 352 352 352 347 351 348 348 351 350 349 350 350 350 352 353 352 348 349 350 351 352 348 348 354 358 356 351 351 350 348 342 341 335 331 327
355 353 351 351 352 353 353 352 351 353 351 350 349 349 350 351 353 355 350 349 350 349 348 352 347 347 353 355 356 351 351 351 350 347 346 337 333 328
351 353 353 352 351 343 336 340 355 354 350 354 353 352 350 352 351 351 351 349 346 348 350 351 346 346 350 357 358 356 351 350 350 349 347 341 334 330
351 351 353 349 350 346 338 337 336 334 334 333 336 339 344 344 344 339 347 350 351 348 348 347 348 350 352 357 357 355 353 351 349 348 347 343 335 332
350 353 351 349 349 354 352 354 350 341 334 334 335 333 334 334 337 345 348 348 352 352 351 352 348 349 349 357 357 353 352 351 349 348 348 344 337 334
335 335 345 351 351 344 351 354 351 350 346 346 345 344 343 342 341 343 347 345 343 342 341 341 342 344 345 351 359 357 355 354 350 349 348 344 339 335
346 342 333 332 336 343 342 344 347 344 349 343 346 347 346 346 346 346 342 348 346 343 341 341 343 344 346 347 352 351 354 352 353 350 347 345 339 336
349 348 347 342 337 335 336 341 339 342 348 346 344 341 340 344 347 350 349 347 345 344 340 340 341 343 344 345 347 354 357 353 353 353 347 345 339 335
349 349 348 347 346 345 344 343 343 342 344 346 345 342 339 340 341 341 343 345 348 347 346 342 347 348 344 343 344 348 356 354 354 352 348 345 342 336
349 349 350 350 350 350 349 349 349 349 348 346 346 344 340 337 336 338 339 342 347 347 349 349 344 344 350 350 348 348 350 354 352 352 348 345 342 340
351 350 349 349 350 351 352 352 351 351 350 349 347 345 342 338 338 339 340 340 343 348 350 349 348 348 347 351 349 352 350 352 354 353 349 347 343 341
354 354 352 351 350 351 352 352 352 352 350 348 348 347 345 343 342 341 342 341 343 346 347 346 347 347 347 353 356 354 354 354 355 354 352 349 345 342
352 353 354 354 354 354 354 354 354 353 351 351 350 348 347 347 347 347 345 343 343 345 346 347 347 349 350 352 352 353 352 351 353 352 352 350 347 344
351 352 353 355 354 355 355 355 355 353 351 351 350 352 351 350 349 349 348 346 345 346 347 347 349 349 352 353 355 354 352 352 350 352 352 349 347 344
349 349 353 354 354 356 356 355 356 356 355 353 353 353 351 351 351 350 349 348 346 346 348 350 352 352 352 352 353 353 353 351 352 349 350 348 345 343
345 348 347 351 354 354 356 356 355 355 354 358 358 356 356 354 353 352 351 350 349 350 351 351 351 352 354 354 352 353 351 351 350 349 349 347 344 341
338 348 351 350 350 353 355 355 357 357 353 354 354 354 354 355 354 353 353 353 353 353 351 350 352 353 352 351 354 353 352 351 350 346 345 346 344 342
336 347 351 354 353 353 354 353 353 355 355 354 354 354 355 356 356 356 356 354 352 353 354 352 353 354 354 354 353 351 353 350 348 348 344 343 341 340

GFSNE_850_thetae_078.txt.gz
Theta_e
345 340 347 349 349 345 346 347 348 350 350 348 347 350 352 351 350 350 351 339 349 350 348 349 344 343 347 350 351 351 352 353 349 337 333 328 327 326
344 338 340 346 350 350 347 348 347 348 349 349 351 352 351 350 349 349 337 340 351 350 349 349 347 344 350 349 351 350 350 347 339 334 329 328 328 328
343 348 347 344 346 351 345 345 347 348 348 348 349 351 351 349 349 350 343 340 349 349 352 349 348 345 351 354 351 349 349 348 338 334 331 330 329 327
340 347 349 348 338 347 350 350 350 350 351 349 348 347 343 350 351 352 351 350 351 352 351 349 350 349 347 354 356 351 350 349 343 339 338 333 330 327
348 349 347 346 345 339 338 347 346 348 348 351 351 354 353 350 350 352 350 352 350 350 350 350 351 349 348 350 355 352 350 349 349 345 344 337 332 328
352 349 351 351 349 347 346 345 347 349 352 354 352 349 350 351 350 350 352 352 346 351 348 350 352 349 346 347 355 352 355 351 350 348 346 343 334 330
350 353 350 352 352 351 350 348 349 347 349 348 349 350 350 352 355 355 354 351 351 349 345 349 351 351 345 347 350 357 355 354 350 348 347 345 336 332
347 347 353 351 353 352 350 342 350 352 352 352 354 354 353 351 351 352 351 350 347 336 347 342 339 344 347 349 351 357 355 352 350 349 347 346 339 334
351 350 348 351 352 351 348 345 339 333 341 342 341 332 329 328 333 333 331 333 336 334 341 348 345 348 348 350 350 355 357 354 351 351 348 347 343 335
347 354 353 350 347 349 355 355 354 352 346 341 340 335 333 335 339 339 337 339 345 340 342 350 344 344 347 348 346 346 358 354 349 349 350 348 345 337
342 340 340 349 346 339 341 348 354 355 353 350 345 345 344 344 346 347 346 346 344 336 332 338 341 341 341 345 348 351 356 353 352 351 351 349 345 339
347 344 342 341 338 343 352 344 340 337 345 350 351 349 347 345 345 348 344 345 345 344 337 335 338 343 341 342 343 344 345 352 355 353 352 350 345 341
351 350 348 345 345 345 344 339 335 331 333 337 340 340 342 342 341 339 338 343 344 343 342 346 342 339 343 345 348 345 345 351 354 352 350 348 348 343
352 351 351 353 351 350 348 346 345 344 342 341 345 349 350 348 347 345 341 341 344 345 345 346 350 348 345 344 340 339 341 348 353 354 350 350 348 347
352 351 350 348 350 353 350 349 348 347 346 344 345 347 347 348 347 341 335 339 338 337 339 343 343 345 348 347 343 341 341 346 348 353 353 350 349 350
352 354 353 352 351 348 348 349 350 350 350 349 349 350 350 350 350 348 345 338 334 335 338 342 346 349 349 348 347 347 348 349 353 352 351 352 352 349
352 352 353 354 354 354 351 349 350 350 350 351 351 351 351 350 350 349 346 342 340 342 344 343 343 345 346 348 349 347 346 352 353 352 352 351 350 349
345 351 352 354 354 354 354 353 351 351 352 353 352 351 351 351 349 349 348 346 345 344 344 343 343 347 346 346 346 346 347 348 348 349 350 350 353 351
325 341 348 348 350 351 354 355 356 356 355 354 354 354 353 352 351 351 349 347 350 351 348 346 344 348 349 351 351 350 350 352 352 350 349 348 350 348
321 324 337 347 349 350 353 351 356 357 357 357 355 354 353 352 354 355 354 352 351 350 348 347 348 350 348 348 348 349 351 352 351 349 350 348 348 350
327 330 331 334 340 345 350 352 350 351 357 358 357 356 355 355 354 354 353 352 352 352 352 351 350 350 349 348 351 353 354 353 352 351 348 348 348 347
332 329 327 332 345 348 346 349 352 351 352 353 354 353 353 353 353 353 353 351 352 352 352 352 353 351 350 351 352 353 352 351 348 351 349 347 347 348
336 336 338 345 342 345 351 352 352 352 353 352 351 353 353 352 351 352 352 351 351 351 351 351 351 351 351 350 350 349 350 351 349 350 348 347 347 345

GFSNE_850_thetae_081.txt.gz
Theta_e
335 339 344 346 348 345 347 347 347 349 349 347 349 348 348 351 351 349 342 334 349 349 350 350 348 344 351 351 349 348 349 346 337 332 328 328 327 328
340 338 340 346 347 349 347 347 348 347 348 349 351 351 352 352 349 344 348 341 344 348 351 351 349 348 346 351 352 349 348 348 335 336 333 330 329 327
339 343 341 341 343 349 346 342 345 348 347 348 349 350 350 349 347 348 349 347 349 351 353 353 349 350 348 347 353 350 349 348 346 342 343 334 330 326
343 342 345 343 339 342 348 344 349 349 349 349 348 346 343 337 340 348 350 351 349 351 349 349 350 351 350 348 348 351 353 351 349 347 346 343 332 328
345 341 342 343 341 339 340 347 347 349 348 348 347 347 344 343 347 349 350 352 352 347 350 349 349 351 351 347 346 352 354 353 351 348 346 346 336 330
349 347 347 345 345 344 339 338 337 338 345 344 349 351 351 346 351 355 355 355 354 350 347 348 347 350 351 348 344 348 356 353 351 350 347 346 342 333
344 350 349 349 350 350 349 343 341 339 339 345 342 348 349 355 354 352 352 351 351 350 342 333 337 347 344 342 347 350 353 355 351 350 349 347 346 337
345 345 346 350 351 350 350 352 349 345 341 349 350 350 351 353 352 338 334 335 332 329 327 327 343 345 347 348 349 351 348 355 356 349 350 348 346 343
348 347 345 345 346 347 346 349 350 348 344 336 334 334 333 330 330 330 332 336 333 329 331 330 331 341 342 344 347 350 345 350 357 351 349 350 347 344
349 350 349 347 351 349 349 352 352 352 352 351 351 349 341 335 342 344 345 344 340 332 337 339 329 327 338 341 343 346 347 349 356 354 352 350 349 345
346 347 347 347 346 347 348 347 346 343 341 340 339 338 338 338 340 345 346 347 343 329 330 342 342 334 330 341 342 343 342 343 348 353 354 352 349 348
347 345 345 344 342 342 343 342 341 334 335 336 337 336 337 342 345 345 343 343 341 334 331 342 341 344 341 336 338 344 345 344 346 350 354 353 350 347
349 351 351 349 348 345 345 344 343 343 343 342 340 339 337 338 338 338 339 340 337 334 330 340 342 344 345 346 344 343 341 343 344 337 350 353 352 349
350 349 350 352 351 350 349 351 350 349 348 347 345 343 343 344 345 345 345 345 345 346 344 342 345 342 344 348 346 346 345 339 339 340 350 353 351 351
349 349 350 350 352 352 351 352 352 351 350 350 349 347 346 347 347 347 348 348 349 346 341 341 339 337 342 341 343 346 348 346 345 346 351 352 352 351
349 349 349 350 350 353 354 353 351 350 351 350 350 349 349 348 348 348 349 350 349 347 344 343 338 333 336 342 347 348 347 347 347 345 347 348 352 351
340 345 346 348 349 350 351 352 352 352 351 348 348 348 349 349 349 350 351 350 350 349 346 343 340 343 344 342 343 347 346 346 346 345 347 348 348 348
319 322 324 329 344 348 350 352 352 352 351 352 352 351 349 350 350 350 350 350 349 349 348 345 342 342 342 343 344 345 344 345 347 348 347 347 348 346
325 321 320 321 323 333 346 350 351 351 350 352 353 353 352 351 352 352 351 350 350 348 349 351 350 347 346 345 345 347 348 346 345 350 349 349 348 347
329 329 325 324 323 322 324 328 342 345 348 352 353 353 354 354 354 354 353 351 352 352 352 351 348 347 348 349 349 349 350 351 350 350 350 350 349 350
324 327 328 328 328 327 328 332 340 342 345 350 351 351 350 350 351 352 352 353 353 354 353 353 352 350 350 349 348 347 348 349 350 349 349 349 348 346
322 327 329 331 333 333 331 329 334 340 343 345 347 348 348 349 351 352 353 353 352 352 351 351 352 351 351 351 351 350 349 342 350 349 349 348 346 346
324 328 336 338 338 339 343 343 341 340 343 346 346 349 348 350 350 350 350 350 348 349 349 351 351 350 350 351 351 350 350 350 349 349 348 346 347 346

GFSNE_850_thetae_084.txt.gz
Theta_e
340 338 342 344 348 347 347 347 347 348 348 349 350 348 350 351 352 348 346 348 346 348 351 351 348 349 347 347 352 348 347 347 335 339 335 331 329 327
338 336 336 342 346 349 347 347 347 347 348 349 349 351 352 353 351 347 345 349 350 351 352 353 351 349 350 347 348 350 350 349 347 344 345 338 331 327
337 337 340 340 341 345 348 346 346 346 347 348 349 348 348 348 345 339 342 350 351 350 350 350 348 350 350 349 345 350 352 351 350 347 346 345 334 329
335 338 340 342 342 341 346 346 346 348 348 347 347 347 346 343 343 345 344 349 350 351 348 348 348 348 350 350 346 345 351 353 351 350 346 346 342 332
347 345 339 341 342 343 341 339 344 344 344 348 348 347 346 343 342 347 350 351 352 353 350 349 347 346 345 350 349 343 347 354 353 349 349 346 346 339
348 347 338 336 338 339 337 336 338 339 339 339 340 343 343 342 346 351 352 352 352 353 351 349 338 330 342 345 340 342 349 351 355 351 349 348 347 344
345 341 346 340 338 340 346 346 345 343 339 336 335 338 338 335 343 352 352 348 336 340 339 328 326 333 339 347 347 349 350 350 354 354 349 349 348 346
346 344 343 345 348 346 345 350 351 350 344 341 333 335 342 345 345 341 333 331 331 328 332 328 328 331 342 344 343 345 346 350 350 355 351 350 348 347
351 349 348 346 344 345 348 349 346 345 349 350 349 348 346 340 341 336 336 341 343 339 340 330 326 327 326 335 341 346 347 347 348 353 356 351 351 348
351 349 350 349 348 347 348 350 346 348 351 352 352 349 348 344 342 338 342 342 340 335 339 333 328 339 339 325 336 341 345 342 340 348 355 353 353 348
346 347 348 347 346 348 351 349 344 343 343 344 344 340 339 339 341 340 340 338 337 331 333 335 329 339 341 341 335 337 340 341 340 341 347 352 354 352
347 343 344 345 345 345 345 345 346 342 341 340 340 339 340 341 343 346 347 349 347 343 334 338 326 332 339 341 343 344 344 342 342 344 343 340 346 353
349 348 348 348 348 349 349 350 348 346 346 346 345 344 345 345 343 342 341 343 342 340 338 343 341 340 341 341 342 342 344 343 346 342 340 341 347 353
347 348 348 349 350 349 348 350 351 351 350 351 351 349 348 346 345 346 346 345 345 345 347 346 346 344 345 344 343 337 337 340 345 347 346 341 345 348
347 350 349 346 348 349 349 349 350 352 352 352 351 351 349 348 349 348 347 347 347 347 347 348 348 348 348 346 342 338 333 340 345 347 344 345 344 347
339 342 344 347 347 347 348 348 348 349 350 351 351 351 351 350 349 349 349 349 349 349 349 349 349 349 348 347 345 338 334 338 344 348 348 348 345 344
330 334 336 337 338 342 341 343 347 348 349 350 351 351 350 350 349 348 347 348 349 349 349 349 348 346 346 344 343 342 343 343 344 345 344 344 346 346
324 326 324 319 318 321 323 324 328 343 348 350 351 351 352 352 352 352 351 350 349 349 350 348 347 345 347 343 340 340 340 341 342 343 344 346 347 347
322 321 320 320 320 321 321 322 322 321 324 331 345 347 346 346 352 352 352 351 351 351 351 350 350 347 349 349 346 346 346 344 344 345 346 347 346 349
323 323 323 323 323 325 326 325 325 326 328 334 337 339 343 345 348 350 350 350 350 350 350 350 351 352 349 348 348 348 348 348 349 349 350 350 350 351
319 321 322 322 322 322 324 327 329 331 332 335 341 344 344 346 349 349 349 348 345 342 342 348 349 351 349 349 349 350 349 348 348 347 347 349 349 349
316 318 319 319 324 329 334 334 334 338 342 341 339 339 340 345 349 348 348 348 348 342 343 344 349 349 348 348 348 348 349 349 350 349 349 348 349 350
309 315 316 319 322 324 324 326 336 340 341 342 342 340 341 350 348 345 347 347 348 348 349 343 348 348 348 347 347 347 346 345 347 348 347 349 349 350

GFSNE_850_thetae_087.txt.gz
Theta_e
339 340 339 342 347 347 347 347 347 348 347 349 348 348 348 350 352 350 347 345 350 351 351 351 350 349 349 349 346 350 351 350 347 345 345 343 333 328
335 338 338 337 341 345 348 346 346 347 347 348 349 352 352 352 350 346 342 337 350 350 349 348 347 347 348 350 347 345 351 352 351 348 345 345 340 331
336 336 337 336 335 341 345 347 346 344 345 346 347 348 347 346 345 342 340 340 349 350 350 349 348 347 346 349 349 345 345 351 353 350 348 346 345 337
338 337 337 337 339 339 342 344 345 345 345 346 347 346 346 345 345 344 344 348 349 351 352 351 350 351 342 337 348 349 344 346 352 353 349 348 346 344
343 345 339 340 339 342 342 342 341 340 342 344 344 344 346 346 345 342 341 345 353 352 351 350 346 339 328 333 344 343 340 348 349 354 351 349 347 345
342 344 345 344 341 340 340 340 339 338 339 339 339 339 339 339 338 337 335 346 351 350 349 338 330 327 328 339 345 342 347 349 349 351 354 349 348 347
346 346 344 343 345 341 341 340 343 346 346 347 345 341 334 335 339 342 345 343 339 333 328 327 329 328 328 345 346 346 347 347 348 349 353 352 349 348
344 344 345 344 343 345 347 345 345 347 349 349 349 348 347 346 338 338 339 335 332 329 332 328 328 325 327 328 332 344 343 344 345 348 350 354 351 350
346 345 348 348 348 347 345 344 346 347 348 348 346 348 348 345 348 347 346 342 337 336 338 330 327 326 332 340 332 332 341 344 343 343 341 350 353 352
344 347 351 349 348 348 348 349 349 348 349 347 345 349 349 345 345 345 347 344 339 336 339 338 330 329 329 339 341 328 336 341 342 341 338 343 348 352
344 344 344 344 346 346 347 346 342 343 344 343 343 342 342 341 341 343 344 345 343 339 340 344 333 333 330 328 338 341 342 341 339 343 343 343 345 343
345 348 347 347 347 345 345 347 347 345 344 344 344 344 343 343 343 343 343 343 344 344 337 344 340 343 344 334 331 336 339 342 345 345 345 343 343 343
346 348 348 349 348 348 349 348 348 349 349 350 350 350 348 346 343 343 346 346 345 344 343 344 344 345 346 346 340 336 338 338 337 339 343 346 344 342
345 345 345 346 346 347 347 347 348 348 348 350 351 351 349 347 345 347 347 347 348 349 347 347 346 345 345 346 347 345 341 337 340 335 336 343 346 344
340 342 341 342 344 346 347 346 346 347 349 349 348 350 349 349 349 349 350 349 348 347 347 348 348 347 347 346 346 348 348 338 338 335 337 345 345 347
337 336 337 339 340 340 340 341 342 342 336 339 346 347 348 348 349 350 350 349 349 348 347 347 347 347 348 348 349 349 345 344 339 335 337 340 343 346
327 331 333 332 333 335 336 333 327 328 328 324 327 343 348 349 350 350 350 350 352 351 350 350 349 348 349 349 349 348 346 344 337 341 343 343 343 343
314 317 319 320 321 323 324 322 319 320 321 322 324 323 326 335 345 348 349 346 346 350 351 350 350 349 350 350 349 346 347 344 339 341 340 341 342 344
309 310 312 315 319 321 321 321 321 320 323 324 325 328 326 334 337 335 339 343 344 345 349 350 351 351 350 351 350 346 344 345 344 345 345 345 344 345
308 309 310 311 314 318 320 321 321 321 322 324 327 329 331 336 343 345 346 345 346 348 348 348 348 348 347 347 347 349 349 348 347 347 347 347 348 348
307 307 308 310 313 316 318 319 321 322 325 328 327 332 337 335 334 338 342 345 347 348 348 348 348 347 343 341 347 347 347 347 346 347 348 348 348 347
304 305 306 307 308 311 315 317 320 324 327 330 333 336 341 343 342 340 340 345 344 344 345 347 347 347 346 342 343 346 347 347 346 346 347 347 347 347
302 303 304 304 306 307 308 314 317 320 321 324 327 332 337 340 341 338 338 336 339 343 343 345 347 348 348 348 345 339 344 345 346 345 343 343 344 344

GFSNE_850_thetae_090.txt.gz
Theta_e
340 341 340 339 342 345 347 346 347 347 347 348 348 348 348 349 351 350 347 341 338 349 349 348 346 347 347 348 349 345 346 352 351 348 346 344 341 332
338 337 339 339 337 340 345 347 346 346 347 348 348 348 349 348 346 345 344 341 338 346 349 349 350 348 350 344 348 348 345 346 352 351 349 346 344 340
336 333 333 337 338 336 337 344 346 346 345 344 344 344 345 345 345 345 344 341 344 348 349 350 350 352 351 340 334 347 348 345 347 352 351 348 346 344
338 336 334 336 336 336 336 337 343 343 344 344 344 343 343 344 344 344 343 341 342 349 350 351 351 350 343 328 329 338 346 341 347 349 353 350 348 346
342 342 342 340 335 337 337 341 342 342 341 339 339 341 342 341 338 335 336 336 336 347 350 349 348 338 327 326 338 343 340 341 348 349 350 353 349 347
342 341 342 343 344 345 341 342 342 341 342 343 344 344 343 340 336 337 339 341 341 342 340 331 328 329 330 327 330 345 346 347 347 347 348 352 352 349
344 344 345 345 344 342 345 342 342 342 342 347 346 348 349 343 346 346 346 346 340 333 327 329 330 331 330 330 331 329 344 344 344 344 346 348 353 351
346 343 345 345 345 345 345 345 346 348 348 346 346 342 344 347 348 350 350 350 348 339 338 329 329 327 328 329 340 339 330 337 342 345 343 343 346 350
344 346 345 344 347 347 346 344 345 347 346 346 347 348 346 343 349 348 346 345 343 338 338 331 329 327 328 328 333 340 331 329 339 342 342 339 340 346
344 343 342 343 345 347 348 348 347 345 346 347 346 347 347 346 346 345 343 340 339 337 337 338 332 329 330 329 328 334 341 333 339 340 340 342 342 342
342 343 343 343 342 343 343 343 344 344 344 343 343 343 343 343 343 344 342 343 342 341 342 343 336 338 342 339 338 329 335 341 341 342 342 343 342 343
344 344 344 344 346 347 346 346 345 344 344 344 344 344 345 345 346 347 348 348 346 346 344 347 344 345 346 344 344 345 345 338 336 340 339 342 344 346
343 344 345 345 346 347 347 348 347 347 347 347 347 347 345 345 345 347 348 348 348 348 345 349 348 348 348 348 346 346 346 346 345 340 337 337 336 343
338 341 343 344 345 345 346 346 346 346 346 346 346 346 346 346 346 347 348 348 348 349 348 349 350 349 349 348 348 347 347 347 347 346 344 339 338 335
335 336 336 337 339 341 342 342 341 340 339 340 342 343 337 337 344 345 346 347 347 347 348 348 349 348 349 348 348 347 347 347 347 346 342 341 338 337
323 330 333 335 336 336 336 335 336 332 327 325 324 327 327 327 332 342 347 348 349 347 347 347 349 350 350 350 349 348 348 348 346 344 342 341 337 337
309 310 312 314 316 320 322 324 324 325 324 321 320 321 322 322 322 323 329 340 346 348 348 349 347 347 350 350 349 349 348 348 347 342 342 341 339 341
306 306 307 308 308 309 310 311 313 316 319 320 320 321 323 325 324 324 328 342 340 337 344 347 344 344 348 349 349 348 349 350 350 344 342 340 339 341
305 305 306 306 307 308 308 309 310 312 313 317 319 320 321 323 328 328 329 337 341 344 343 343 345 347 348 348 347 349 349 347 348 348 348 347 346 345
304 304 305 305 306 307 307 308 309 311 313 317 321 321 322 325 328 334 337 338 336 340 340 342 347 347 347 347 348 347 345 343 344 347 348 347 347 347
303 303 303 304 304 305 306 307 307 308 311 313 316 321 324 327 333 338 340 343 344 346 347 345 340 342 345 347 348 347 347 345 342 345 346 346 345 345
301 301 301 301 301 302 304 304 306 307 307 308 312 316 320 322 324 327 332 338 340 340 340 339 340 341 345 345 346 347 346 347 342 344 344 345 345 345
298 299 300 300 301 301 300 300 303 305 306 307 307 309 315 318 324 323 329 334 337 339 339 337 338 343 344 344 345 347 348 347 346 343 342 342 342 344

GFSNE_850_thetae_093.txt.gz
Theta_e
339 340 341 340 340 343 346 347 346 350 350 352 353 349 350 350 348 346 345 344 342 339 344 348 349 349 349 350 342 346 348 346 349 351 350 348 345 341
340 338 338 340 340 338 339 344 347 347 349 346 350 346 345 346 346 344 344 344 343 341 345 348 349 350 351 345 333 331 345 348 345 348 352 349 347 345
341 339 337 335 337 339 338 336 338 344 349 350 345 344 343 342 342 342 341 342 349 343 347 350 350 350 348 337 328 334 337 347 344 347 350 352 348 346
340 338 337 335 334 335 336 336 338 338 343 345 346 343 341 340 342 341 338 341 344 342 337 348 350 347 334 329 329 336 346 340 337 348 348 351 351 349
340 342 339 338 336 336 336 337 342 341 343 343 345 341 338 338 338 339 334 335 340 342 341 337 332 328 330 331 329 328 334 345 347 347 347 348 351 351
341 340 340 342 343 341 345 344 342 340 344 344 349 349 348 345 343 346 349 350 348 340 340 333 331 329 330 331 330 329 334 334 345 344 344 346 348 351
345 344 343 343 345 344 343 341 341 341 348 348 347 348 348 349 348 350 352 352 350 344 338 343 342 333 332 327 328 328 338 337 334 342 342 344 344 345
345 345 344 342 344 345 345 344 344 344 344 347 348 349 349 347 350 349 351 351 349 346 339 338 342 339 338 341 334 327 334 337 328 332 341 343 344 342
342 341 341 348 345 343 345 347 347 344 344 346 347 346 347 346 346 346 351 349 349 345 344 345 341 343 345 342 331 334 329 338 328 332 341 343 342 341
343 343 343 341 341 341 343 344 344 344 345 347 346 345 345 344 344 347 345 343 343 347 348 347 345 345 345 342 339 341 332 334 338 335 339 339 340 341
342 344 344 344 344 343 342 342 342 342 343 342 343 344 343 343 344 345 347 350 348 348 349 351 347 349 349 344 340 343 344 342 338 341 340 341 343 343
340 342 343 343 342 342 342 343 346 348 346 345 346 346 346 345 345 346 346 350 350 350 349 350 350 350 350 348 350 348 346 346 346 346 346 341 338 338
337 338 341 342 342 342 343 343 345 346 346 346 346 346 348 348 349 350 347 346 350 351 351 351 351 352 351 351 350 351 351 349 347 347 346 345 345 344
334 335 336 337 339 341 342 342 342 341 342 342 342 342 341 341 341 341 338 341 344 346 346 348 349 352 352 351 351 350 351 352 352 350 346 346 342 343
321 324 328 332 334 336 336 335 336 334 332 333 334 334 334 333 331 333 334 336 337 341 345 346 347 349 352 351 352 352 352 351 351 351 350 345 347 345
312 312 313 314 316 319 321 324 326 327 328 326 330 331 331 331 333 336 338 339 340 343 345 347 348 350 350 351 351 350 351 353 352 352 351 350 346 345
306 306 306 306 307 307 308 309 309 310 312 314 319 324 327 329 331 334 336 338 338 339 340 342 346 349 348 348 348 349 351 353 352 352 350 350 346 340
304 304 304 304 305 305 306 306 308 310 315 315 320 323 325 328 329 331 334 336 336 340 337 333 343 346 346 347 347 346 349 351 352 353 349 349 347 341
303 303 303 304 304 304 307 307 306 311 310 315 316 321 325 327 328 328 330 332 334 337 339 340 339 339 343 348 346 348 348 350 351 352 351 350 350 346
303 303 303 303 303 303 304 305 305 305 307 310 312 313 316 318 320 324 329 331 333 335 335 339 342 341 345 341 342 344 347 349 349 350 350 348 349 346
302 303 303 302 302 302 303 303 303 303 304 306 309 310 311 312 314 317 321 323 324 327 331 335 340 341 342 341 342 338 339 341 345 346 346 349 350 350
300 300 300 300 300 301 301 301 301 302 303 305 306 308 309 310 313 315 318 318 323 326 328 332 336 337 339 340 339 339 344 344 345 346 347 347 345 349
298 298 297 297 297 297 298 298 298 298 299 299 301 303 304 306 307 313 315 317 317 321 323 324 330 334 335 337 338 339 344 344 344 347 348 347 345 345

GFSNE_850_thetae_096.txt.gz
Theta_e
350 342 346 347 348 349 351 352 351 348 349 353 351 353 353 353 353 348 351 347 342 343 342 346 349 350 350 347 339 330 333 344 348 346 348 351 347 344
348 349 340 345 347 348 348 349 350 350 348 351 350 352 352 350 350 346 348 345 348 348 344 345 349 350 350 344 333 328 339 338 346 344 348 352 350 347
350 349 348 345 345 346 347 348 347 347 348 347 350 350 351 352 349 341 346 347 345 346 342 339 338 344 346 333 330 328 333 344 340 340 347 349 352 350
348 349 349 345 346 343 346 347 347 348 347 346 346 348 351 351 351 350 350 345 346 344 343 343 334 331 328 330 331 329 328 328 343 344 347 348 348 351
348 348 348 347 348 344 345 345 343 344 345 345 345 346 347 350 351 350 348 349 348 346 345 343 338 331 329 329 329 328 328 335 334 344 345 345 346 348
349 348 348 349 349 350 349 349 348 349 346 346 345 344 345 346 349 347 345 346 347 347 347 344 342 342 341 336 331 329 328 331 337 333 343 343 343 346
349 350 350 348 345 344 348 349 351 349 346 344 344 344 345 347 347 346 346 346 346 347 346 348 344 341 341 341 341 343 337 328 334 333 331 342 342 345
347 349 347 344 343 342 344 346 346 345 350 348 346 346 347 350 349 349 348 347 347 346 346 345 343 343 341 342 343 341 335 333 329 335 325 332 340 343
349 350 350 346 347 349 348 343 345 347 348 346 347 350 348 348 349 350 349 349 348 346 346 346 347 347 343 342 346 343 342 340 329 333 330 332 339 341
349 348 347 347 343 341 344 349 350 351 349 346 348 347 346 348 348 348 348 349 351 350 347 347 347 348 347 346 348 348 344 343 340 332 337 338 338 339
342 342 343 343 342 343 342 345 350 351 350 347 350 348 344 343 344 345 348 350 349 348 348 347 346 346 347 347 347 348 349 347 346 346 346 345 343 340
338 339 339 340 340 342 342 342 343 344 343 344 345 346 347 347 347 349 350 351 351 350 349 351 352 351 350 349 347 348 348 349 350 349 348 347 346 346
334 334 336 336 338 340 341 341 342 342 342 343 342 344 346 349 349 350 350 351 352 352 351 351 352 353 352 352 351 350 348 349 350 351 351 351 351 350
329 329 329 333 335 336 337 338 338 339 339 337 339 340 340 341 341 341 341 340 338 340 338 345 348 352 353 353 352 351 351 351 351 351 352 353 352 351
317 317 316 317 317 317 320 325 329 332 334 335 336 337 338 338 338 337 338 339 341 342 345 348 349 350 351 351 354 354 353 352 353 352 353 354 353 353
308 308 307 308 309 309 309 310 315 317 322 323 324 327 328 329 330 331 333 335 337 339 341 343 343 344 347 347 349 350 352 352 352 353 353 354 353 355
304 305 311 313 314 315 315 316 317 319 318 321 322 323 324 324 325 327 328 330 331 334 336 337 339 340 344 346 350 349 349 349 350 351 352 352 355 355
303 304 306 305 310 311 313 314 314 315 317 319 319 319 320 322 324 327 327 328 329 330 332 333 337 339 340 340 341 344 346 347 347 349 351 352 352 354
308 308 306 306 309 305 306 310 312 312 309 312 313 315 316 316 316 318 320 322 326 328 330 331 334 338 343 342 339 340 341 342 345 349 350 348 350 351
306 306 306 306 306 306 306 306 306 306 308 309 310 311 313 314 314 315 316 317 319 322 323 324 326 328 332 335 338 340 342 343 343 343 344 347 347 348
304 304 304 303 303 303 303 303 303 304 304 305 307 308 309 311 312 313 313 315 317 319 319 322 325 329 331 333 334 336 338 343 343 343 344 346 347 348
302 302 302 302 301 301 301 301 301 302 302 302 303 304 304 305 307 309 310 311 311 312 314 317 319 322 323 326 329 335 337 339 341 342 342 342 343 344
301 301 300 300 300 300 300 300 300 300 300 300 300 301 301 301 302 303 305 305 307 310 313 313 314 316 318 320 323 326 331 336 337 340 341 343 343 344

GFSNE_850_thetae_099.txt.gz
Theta_e
353 349 342 348 346 349 349 349 349 349 352 350 351 345 348 352 352 351 351 350 345 347 348 347 340 343 349 350 344 331 327 340 337 345 344 348 351 347
349 349 349 348 348 346 347 348 348 348 347 350 351 353 352 349 351 352 350 346 347 346 347 343 339 337 338 345 334 329 326 327 340 339 340 347 350 351
349 351 350 349 348 347 346 348 348 347 347 347 349 350 351 352 354 348 352 350 348 346 344 345 343 333 329 328 328 330 328 328 329 339 343 347 348 349
350 349 349 348 348 345 345 346 347 348 350 346 346 346 346 348 350 351 351 350 348 350 347 346 344 340 334 329 327 328 327 329 333 334 343 346 347 346
350 350 350 349 348 347 347 348 347 347 347 348 347 345 344 344 346 350 347 348 351 346 346 347 345 342 343 341 340 337 333 332 331 335 333 342 344 343
350 350 350 350 350 350 348 347 346 347 347 348 347 345 346 344 344 347 348 344 346 348 347 346 348 345 344 341 341 341 342 342 340 330 336 332 339 342
353 352 351 351 350 348 347 349 349 350 350 350 346 344 344 349 350 348 349 347 347 346 346 347 345 344 343 342 341 343 344 343 337 334 330 331 328 339
351 352 351 351 343 344 344 342 342 344 344 350 349 349 347 349 350 351 351 348 348 347 347 347 346 347 347 346 344 344 344 344 339 338 329 332 325 332
349 350 350 349 348 350 350 347 345 343 343 345 345 343 343 344 346 345 350 350 351 348 348 352 350 349 347 346 347 347 347 346 341 341 332 334 335 334
349 349 348 346 342 344 343 343 350 351 349 349 350 349 346 347 348 349 346 346 350 349 349 350 349 348 347 347 347 347 347 348 347 348 346 343 338 339
343 343 344 342 342 342 342 344 346 348 349 347 347 347 345 343 344 345 345 349 349 349 351 351 352 350 352 353 351 350 349 348 349 349 349 349 347 347
342 340 338 339 339 338 339 341 342 346 346 343 342 342 342 343 346 348 349 349 350 352 350 351 352 352 351 350 352 351 350 351 351 349 350 350 351 351
336 336 335 335 335 336 337 338 338 339 340 340 340 341 343 343 344 345 344 346 349 350 349 347 346 348 348 350 352 352 352 351 351 353 352 351 351 352
328 332 332 330 331 329 325 326 330 331 332 335 339 340 341 342 342 342 342 341 340 339 340 342 347 349 351 350 351 350 352 352 354 353 352 353 353 353
315 315 313 312 313 313 313 312 313 314 325 330 331 331 329 331 333 332 332 333 334 336 341 342 345 347 347 347 347 350 350 349 351 352 353 353 353 354
308 307 307 310 312 315 316 320 320 320 317 313 315 322 324 325 325 325 326 327 328 329 330 332 335 338 341 343 344 346 348 349 350 349 348 349 351 351
304 307 315 316 316 317 317 317 318 318 319 321 322 321 321 321 322 323 325 328 328 328 329 329 330 331 333 337 339 340 341 341 343 345 348 347 347 348
308 310 313 311 312 313 313 314 315 315 315 313 315 316 317 317 318 318 317 319 320 321 323 325 326 329 332 334 335 340 341 341 341 339 341 343 348 346
312 312 312 312 312 311 310 309 308 309 306 308 311 311 313 315 316 316 317 317 318 318 318 319 322 324 326 326 324 327 334 339 341 341 342 345 343 344
309 310 309 309 309 308 308 308 308 308 308 306 307 308 309 310 311 312 313 314 315 315 316 317 320 322 324 323 324 328 330 328 326 332 336 340 345 345
308 308 307 307 307 306 306 306 306 305 304 306 306 306 306 306 306 307 308 308 309 311 313 314 315 314 316 319 319 322 322 325 328 332 336 338 339 342
306 306 305 305 305 305 304 304 304 304 304 304 304 304 304 304 304 304 304 304 305 305 306 307 308 310 312 315 318 318 317 318 320 324 325 335 334 337
304 304 304 304 303 303 303 302 302 302 301 301 301 301 301 301 301 301 302 302 302 302 302 303 304 304 305 306 306 312 317 320 323 323 324 326 331 338

GFSNE_850_thetae_102.txt.gz
Theta_e
352 344 339 344 347 349 349 349 348 348 347 338 339 341 338 332 349 353 351 349 341 347 347 345 343 341 334 336 341 330 329 327 332 341 343 344 347 350
349 351 348 344 343 348 349 348 350 347 348 346 347 348 344 349 351 353 347 343 349 349 346 346 345 343 335 326 326 326 327 327 329 332 340 341 346 348
343 348 349 349 341 339 348 347 350 348 348 350 348 345 343 346 347 351 349 349 349 348 349 346 345 345 340 342 337 333 326 326 328 332 334 342 345 347
348 345 346 345 349 348 340 344 346 345 348 348 347 347 347 343 344 346 346 349 348 349 348 345 347 346 344 343 341 341 340 340 334 340 335 334 341 344
348 350 349 348 348 346 345 346 346 347 346 345 345 345 344 345 347 347 349 346 344 346 347 347 346 347 345 344 343 342 341 342 343 343 337 331 334 339
349 347 349 350 346 348 346 348 345 348 348 349 351 350 347 350 349 349 351 352 352 348 345 347 347 346 346 343 345 343 342 343 344 345 338 336 333 331
348 351 351 350 349 348 347 346 345 347 346 350 346 344 346 347 346 346 345 346 342 341 339 340 340 344 347 347 346 346 346 346 346 344 337 336 329 330
347 345 346 345 345 345 346 347 345 343 340 340 340 340 340 340 340 340 340 343 344 340 341 345 349 350 350 348 349 347 347 346 347 347 343 339 332 330
341 342 344 346 348 348 347 345 341 343 345 346 347 349 348 344 343 342 343 344 342 340 345 349 350 350 353 353 350 348 348 348 348 347 347 348 347 342
343 345 345 343 341 341 343 344 343 341 342 348 347 346 346 345 346 345 343 342 343 346 351 351 351 352 352 349 348 352 352 352 349 351 351 349 349 349
344 342 342 342 341 341 341 342 341 342 343 342 343 343 343 342 342 344 344 345 347 348 348 349 350 350 350 348 346 347 351 351 350 353 352 352 350 349
339 340 340 338 338 337 336 336 336 338 340 341 341 341 341 343 343 344 347 349 348 346 346 347 346 342 340 339 342 344 349 352 352 353 355 353 352 352
336 336 336 336 336 335 333 330 329 331 333 333 333 339 340 341 342 342 342 341 340 339 339 337 339 342 343 344 343 343 340 340 348 350 351 353 352 351
325 328 332 333 330 326 328 332 329 323 317 319 330 335 336 336 338 338 338 337 331 331 332 334 338 340 337 337 339 338 340 348 349 347 345 347 348 350
315 313 313 312 311 310 312 315 316 315 315 314 317 321 321 323 324 324 324 325 325 326 327 328 330 330 332 342 342 343 336 336 338 342 339 345 350 349
309 307 307 312 316 317 318 319 318 319 319 320 321 321 321 321 321 322 323 324 325 326 327 328 331 331 331 332 335 337 338 341 343 343 343 343 342 342
305 305 312 316 316 317 317 317 317 317 316 316 315 312 314 314 314 315 315 316 317 317 317 318 320 326 328 328 329 331 333 336 334 336 339 341 342 346
306 311 310 310 310 310 308 309 313 312 311 308 306 308 309 310 310 313 315 316 316 317 317 317 316 314 313 310 316 322 321 326 329 330 332 335 336 335
313 313 313 312 312 312 311 310 308 307 307 307 306 306 307 307 307 308 309 311 312 313 313 313 312 317 316 316 309 314 321 322 321 323 323 322 329 338
311 311 311 310 309 309 308 307 306 307 305 305 306 306 306 306 306 306 306 306 305 305 305 306 308 310 311 310 311 308 311 318 319 320 322 323 324 323
309 309 308 308 308 307 306 306 305 305 305 305 305 304 304 304 304 304 303 303 303 304 304 303 304 303 303 303 304 305 306 306 306 313 320 320 319 319
308 307 307 306 306 305 304 304 304 303 303 303 302 302 301 301 301 300 300 300 300 300 300 300 300 301 302 303 303 303 302 305 305 305 305 311 318 319
306 306 305 305 304 303 302 302 301 301 301 300 299 299 298 298 298 298 298 298 298 299 299 299 299 299 299 300 300 301 301 302 304 304 306 305 305 311

GFSNE_850_thetae_105.txt.gz
Theta_e
341 340 347 344 345 346 348 348 348 346 346 346 342 346 340 343 345 346 348 349 348 349 347 346 345 344 340 337 327 326 326 326 328 332 335 340 343 346
341 342 342 345 340 342 348 347 344 346 346 346 347 346 344 344 346 347 348 348 348 347 348 350 345 346 341 341 340 340 334 328 327 334 335 335 343 345
345 341 348 348 347 341 336 342 342 345 348 347 345 347 345 343 343 343 344 346 347 346 348 348 347 346 345 345 344 343 341 340 340 341 341 336 334 342
347 345 343 341 343 342 345 346 346 347 347 346 345 344 344 348 345 346 347 348 350 348 347 346 347 346 346 344 343 344 344 342 341 343 344 340 332 333
349 346 349 348 348 348 346 342 342 342 342 342 343 343 349 350 350 350 349 348 347 350 348 346 345 347 346 344 342 344 344 344 344 346 345 343 339 333
345 348 348 347 346 346 345 345 345 346 346 346 346 346 347 346 345 341 343 342 340 339 337 336 338 341 342 347 347 348 347 345 345 346 346 340 336 329
345 348 347 348 348 348 347 346 348 346 341 340 339 339 338 338 338 338 339 338 335 337 338 337 348 348 350 351 351 348 350 347 347 347 347 346 345 340
346 345 345 344 344 341 342 345 343 343 342 342 343 344 344 345 344 342 341 340 341 340 343 341 348 349 353 352 352 350 349 351 351 349 347 350 350 348
343 340 341 340 341 342 343 343 344 342 341 342 343 345 346 344 342 341 342 342 342 342 346 347 347 347 348 350 350 349 350 351 351 350 351 353 352 351
341 340 339 341 343 343 342 341 342 341 341 341 341 341 342 342 342 342 342 345 346 347 348 346 346 346 345 344 342 343 350 349 349 351 351 352 352 352
342 342 342 341 340 340 340 340 340 339 340 342 343 343 341 341 343 343 344 345 346 346 344 342 339 338 338 340 341 340 344 346 344 348 350 352 353 352
339 339 340 339 338 336 335 335 334 334 334 335 337 338 341 341 343 344 342 339 336 337 333 332 333 335 338 340 337 334 335 335 339 345 343 341 344 347
336 336 336 336 335 335 335 334 332 334 334 325 322 333 337 335 333 332 331 331 329 328 328 329 330 330 330 331 332 334 339 340 334 335 337 344 340 339
328 327 324 323 323 316 312 312 313 313 313 314 316 319 325 330 333 333 328 326 326 327 329 330 329 329 329 330 331 332 333 333 333 337 343 342 343 344
313 312 311 310 310 314 318 319 317 316 318 316 315 316 317 317 316 314 314 316 320 322 324 325 326 327 328 327 326 328 329 331 334 338 339 340 341 342
307 307 308 310 312 316 317 318 317 317 317 317 316 317 317 313 310 310 310 309 308 308 310 311 313 315 318 322 320 320 323 324 326 328 331 333 334 336
305 305 309 313 316 317 317 317 317 316 315 313 310 307 306 306 306 307 308 309 310 310 310 309 309 309 309 310 309 310 314 316 318 318 318 318 319 320
304 307 311 310 309 311 311 309 308 310 307 306 306 305 305 305 305 305 305 305 305 305 305 305 305 305 306 306 306 307 307 307 308 308 308 310 310 311
314 314 313 312 312 311 310 309 307 306 305 305 304 305 305 305 305 304 304 304 304 304 303 303 303 303 303 304 304 303 304 304 304 305 305 305 306 307
311 311 311 310 309 308 307 306 305 305 304 304 304 304 303 303 303 302 301 301 301 301 301 300 300 300 299 301 301 304 302 302 302 303 304 304 304 305
309 310 309 309 308 307 305 304 304 304 304 303 302 302 301 300 300 300 300 300 300 300 300 300 300 300 300 300 300 302 302 301 301 301 302 303 304 305
309 308 308 307 305 304 303 303 302 301 301 301 300 299 299 298 299 299 299 299 299 299 299 299 299 299 299 299 299 300 301 302 302 301 300 300 302 303
307 306 305 304 303 303 302 300 300 300 299 299 298 298 298 298 298 298 298 299 299 299 299 299 299 299 298 298 297 298 299 299 300 301 302 300 300 301

GFSNE_850_thetae_108.txt.gz
Theta_e
344 341 343 345 345 346 344 347 347 346 346 346 345 346 345 343 343 345 345 346 347 349 349 349 349 347 342 342 342 341 339 331 328 338 337 335 339 343
341 340 342 342 347 346 342 341 345 345 346 345 346 345 345 344 345 344 344 343 344 348 348 346 347 346 345 345 345 344 344 342 340 341 342 341 335 337
345 344 343 345 347 347 344 347 347 347 346 346 346 344 342 341 344 344 345 343 346 349 347 346 346 346 346 345 344 344 343 344 343 341 343 344 336 333
346 345 342 342 340 341 342 342 343 345 346 346 345 343 342 343 349 349 349 348 348 347 346 349 346 339 346 346 345 342 344 345 343 344 344 343 341 337
342 344 345 347 346 346 347 345 344 342 341 341 343 343 348 346 348 347 342 343 344 342 340 335 337 340 344 345 348 345 347 347 345 346 346 344 340 335
346 345 345 348 347 345 345 345 345 345 345 343 343 344 344 342 341 340 337 336 336 337 338 338 341 348 349 350 351 350 348 348 346 346 346 346 346 346
342 344 343 346 345 343 345 345 344 342 343 342 340 338 338 340 341 339 340 338 337 338 337 339 344 347 349 350 348 349 349 348 350 349 347 347 348 348
345 345 345 341 342 341 341 341 344 343 342 341 340 341 341 343 344 342 340 340 339 342 341 342 345 345 346 346 348 349 348 351 350 350 348 350 350 351
342 341 340 340 340 340 341 342 341 342 342 340 339 339 341 342 342 340 340 341 344 345 346 344 343 342 341 340 340 341 343 350 349 347 349 348 347 348
342 342 341 339 339 341 342 342 341 341 341 342 342 342 342 342 341 340 342 343 344 345 345 340 340 338 339 337 341 337 339 340 340 342 344 347 348 349
341 341 342 341 340 339 340 339 339 339 339 340 340 340 339 339 341 343 343 343 341 341 337 333 332 336 336 334 339 333 333 336 335 337 344 341 343 341
340 340 340 339 338 337 336 335 333 331 330 327 331 335 337 339 338 337 336 335 333 332 332 332 330 330 331 335 331 330 330 332 334 332 333 339 344 341
336 336 336 336 335 335 334 333 330 329 330 330 329 323 333 336 333 331 329 328 328 327 326 327 327 327 327 327 327 328 328 330 331 331 331 335 341 342
328 327 325 324 323 321 318 317 314 314 314 314 314 315 318 320 322 322 321 321 322 322 322 322 323 323 322 322 322 323 324 323 325 327 329 329 332 338
317 314 313 312 312 312 314 316 316 318 317 316 315 315 316 316 315 315 314 313 314 314 313 313 312 312 312 311 311 311 310 312 316 318 315 318 321 324
307 308 308 311 314 315 316 318 318 317 316 314 314 312 310 308 307 306 306 306 306 306 307 306 306 306 306 306 306 307 309 309 308 307 308 308 308 308
304 309 313 315 316 317 317 317 316 316 315 313 308 306 305 305 305 305 305 305 305 305 305 305 305 304 304 304 304 304 304 304 304 305 305 306 307 306
305 310 311 312 312 313 313 312 310 307 306 306 305 305 304 304 304 304 303 303 303 303 302 302 303 303 304 304 303 303 302 302 303 303 303 304 306 306
309 312 312 312 311 311 310 309 307 305 305 304 304 304 303 303 302 302 302 301 301 301 301 301 301 301 302 301 301 300 300 301 301 302 302 302 303 304
313 313 312 312 311 309 308 306 305 304 304 303 302 302 301 301 300 300 300 300 300 300 300 300 300 300 300 299 300 301 300 300 300 301 301 302 302 303
311 310 310 310 309 307 306 304 303 303 302 301 300 300 300 299 300 300 299 299 299 300 300 299 299 299 300 300 300 301 302 301 301 300 301 301 301 302
309 309 308 308 307 305 304 303 302 301 300 299 299 298 298 298 299 299 299 299 299 298 298 299 299 299 300 299 298 299 300 301 300 300 298 299 299 299
308 308 307 306 304 303 302 301 300 299 299 298 297 297 297 298 298 298 298 298 298 298 298 298 299 298 298 297 296 296 296 297 298 300 300 299 298 297

GFSNE_850_thetae_111.txt.gz
Theta_e
344 343 344 345 343 344 343 342 345 345 344 345 345 345 345 344 342 342 342 342 344 344 346 343 342 344 345 344 344 343 343 343 341 339 336 340 338 337
343 342 342 345 346 347 346 343 341 344 345 345 346 345 344 342 340 339 343 344 343 343 346 346 346 346 345 345 343 344 342 343 345 343 341 340 342 336
343 344 343 344 345 345 345 343 344 345 346 345 345 345 344 343 341 339 341 345 345 347 347 346 346 347 343 344 346 345 342 343 344 343 343 342 342 342
341 345 345 343 341 341 344 346 346 343 344 344 344 343 342 342 343 345 345 346 346 346 343 342 340 336 342 344 346 348 343 344 345 345 346 344 342 342
343 341 343 345 345 346 346 346 345 345 346 345 346 345 344 346 346 345 343 342 338 337 337 338 340 349 350 351 350 350 347 347 348 345 346 346 345 345
344 345 343 344 345 343 343 344 345 343 345 345 344 341 340 340 339 340 339 337 336 337 337 340 346 349 351 349 347 348 347 347 346 346 348 345 346 348
345 343 342 341 340 344 341 341 343 344 342 343 341 341 342 342 343 343 343 340 338 339 339 345 344 345 345 346 347 348 346 345 345 346 347 348 349 348
343 341 341 342 342 340 339 340 342 341 342 341 340 338 339 340 341 341 340 338 339 343 343 344 343 342 340 339 341 341 343 344 347 348 346 347 348 347
339 339 340 340 339 339 339 340 341 341 340 341 341 340 340 341 341 340 340 340 342 343 343 343 340 339 338 336 342 339 337 339 342 343 343 344 346 348
340 340 343 343 341 339 339 341 342 341 341 341 342 341 341 340 340 340 341 342 341 342 342 340 338 337 336 333 340 335 331 337 338 337 339 341 342 343
339 339 341 341 341 340 339 339 339 339 338 338 337 336 336 337 337 338 339 339 338 338 339 336 335 335 332 328 335 330 328 329 330 332 333 336 339 343
340 340 341 340 339 338 337 335 334 332 329 328 328 332 334 335 335 335 334 334 333 331 331 330 328 327 324 326 329 322 323 324 326 328 331 332 334 338
336 336 336 336 336 335 335 334 331 329 329 329 328 325 328 330 328 329 329 326 325 324 323 322 320 320 319 317 313 312 311 311 313 316 320 325 326 325
331 331 331 330 328 326 322 319 316 315 315 315 315 315 317 317 318 317 317 316 316 316 316 316 313 311 309 309 307 307 307 307 308 309 309 308 308 309
322 322 319 319 316 314 314 315 317 318 318 317 316 314 313 312 311 311 310 310 310 310 309 307 305 305 304 304 305 305 305 305 305 305 306 306 306 306
309 309 309 310 311 313 316 318 318 317 316 315 313 311 308 306 305 305 305 305 305 304 304 304 304 304 304 304 303 304 303 303 303 304 305 305 305 305
305 306 309 313 315 316 317 317 316 315 314 312 309 306 305 305 304 304 304 303 303 303 303 303 303 303 302 302 302 302 302 302 302 303 303 304 304 304
305 308 312 314 315 315 315 314 312 310 307 305 305 304 304 303 303 302 302 302 302 302 302 302 302 302 302 302 301 301 301 301 302 302 303 303 304 304
305 310 311 311 311 310 310 309 308 306 304 304 303 303 302 301 301 301 301 301 301 300 300 300 300 300 301 301 300 300 300 301 301 302 302 302 303 304
308 312 312 312 311 310 308 307 305 304 303 303 301 301 300 300 300 300 300 300 299 299 299 299 300 300 300 299 300 300 300 300 300 300 301 301 302 302
312 312 311 310 309 308 307 305 303 303 302 300 300 299 299 299 299 299 299 299 299 299 299 299 299 299 299 299 299 300 300 300 299 299 299 300 301 302
310 310 309 308 308 306 304 303 302 301 300 299 299 298 298 298 298 298 298 298 298 298 298 299 299 298 299 298 296 297 298 299 299 298 298 297 297 298
308 308 307 307 305 304 302 301 300 299 298 298 297 297 297 297 297 298 298 298 298 298 298 298 297 298 296 296 296 295 295 295 296 297 298 298 297 297

GFSNE_850_thetae_114.txt.gz
Theta_e
343 342 341 341 343 344 344 343 341 343 343 343 344 344 345 344 341 341 337 343 343 343 343 345 344 346 346 345 344 343 344 342 343 346 343 340 340 339
343 343 342 344 343 344 345 345 343 341 342 342 343 345 345 343 343 342 339 343 347 345 345 346 345 344 343 344 345 345 345 341 342 344 343 342 341 341
344 344 344 342 343 344 344 344 343 343 343 342 342 343 344 343 343 343 343 345 343 345 345 342 339 338 336 338 341 341 343 340 344 344 345 343 341 341
346 345 343 345 343 341 341 343 344 345 344 343 340 339 340 343 346 344 344 345 342 341 337 337 338 346 350 351 350 349 349 345 343 346 344 346 346 346
343 342 340 343 344 345 346 345 345 344 344 344 344 343 342 342 342 342 341 341 338 337 337 337 340 347 350 349 348 347 347 346 347 346 343 346 343 346
344 344 344 343 344 345 345 344 344 344 345 344 344 343 341 342 341 341 339 339 338 337 340 342 345 346 344 345 345 345 345 345 346 345 345 346 346 345
344 345 345 345 343 342 343 341 340 342 342 344 344 342 340 339 340 340 341 341 338 338 342 344 345 341 338 339 340 340 341 342 343 345 345 346 346 345
343 345 343 342 341 343 340 339 341 340 340 341 342 342 340 340 340 341 340 340 339 340 342 344 340 335 335 336 341 341 336 336 338 341 343 344 344 345
342 342 342 342 342 342 340 339 338 340 341 340 341 340 340 340 340 339 339 340 341 341 342 341 338 334 333 338 338 334 330 333 337 338 336 338 340 344
338 338 338 338 339 339 340 338 338 340 341 341 340 340 339 338 337 337 339 340 339 340 340 338 337 335 330 333 336 334 328 326 329 333 334 334 337 341
339 340 339 339 338 339 340 339 338 338 337 337 336 335 334 334 335 335 335 336 335 335 336 335 332 331 324 324 331 333 326 320 322 325 327 330 332 335
340 340 340 339 339 338 336 336 335 333 332 329 328 328 329 330 330 331 331 331 331 330 330 327 323 317 316 320 322 310 308 308 309 310 313 316 320 323
336 337 337 338 337 336 335 335 334 331 328 327 325 326 326 326 325 325 324 323 322 320 317 315 313 311 309 308 307 306 306 306 306 306 307 306 306 307
333 334 334 334 333 330 326 322 319 317 317 318 318 318 317 316 315 315 314 313 311 310 309 308 307 305 305 305 305 305 305 305 305 305 305 305 305 305
325 325 324 324 321 317 315 315 316 318 319 318 317 315 313 311 309 308 307 307 307 306 305 304 304 304 304 303 303 303 303 304 304 304 304 304 304 304
308 309 311 311 311 311 314 317 318 319 317 316 314 312 309 306 305 305 304 304 304 303 303 303 303 303 302 302 302 302 302 302 302 303 303 303 303 303
307 307 307 310 313 314 316 317 316 316 315 313 310 307 305 304 304 303 303 303 302 302 302 302 301 302 302 301 301 301 301 301 301 302 302 302 303 303
310 306 310 313 315 316 315 315 313 311 309 306 305 304 303 303 302 301 301 301 301 301 301 301 301 301 301 301 300 301 301 301 301 301 301 302 302 302
309 305 311 313 313 312 310 310 309 307 306 304 303 302 301 301 300 300 300 300 300 300 300 300 300 300 300 300 300 299 299 300 300 300 300 300 301 301
304 304 310 312 311 311 309 308 306 304 303 303 301 300 300 299 299 299 299 299 299 299 299 299 299 299 299 299 299 299 298 298 298 299 299 300 300 300
304 308 312 311 310 309 307 306 304 303 302 301 299 299 298 298 298 298 298 298 298 298 299 299 299 299 298 298 298 298 298 298 297 297 298 299 299 299
309 312 311 309 308 307 306 304 302 301 300 299 298 298 297 297 297 298 298 298 298 298 298 298 298 298 298 298 298 298 298 298 297 296 295 295 296 296
310 310 308 308 307 305 304 302 301 300 299 298 297 297 296 297 297 297 297 298 298 298 298 298 298 298 297 297 297 297 298 298 297 297 295 294 294 295

GFSNE_850_thetae_117.txt.gz
Theta_e
343 343 342 341 342 344 344 344 345 345 345 346 344 344 345 344 342 343 341 339 344 346 346 347 345 344 341 340 343 345 345 345 344 344 343 343 341 341
342 341 343 343 343 343 343 343 344 347 346 347 346 341 344 344 344 344 343 345 344 343 342 341 338 337 334 335 339 342 340 342 341 345 344 344 341 340
343 342 343 343 341 342 344 344 344 343 347 345 344 342 339 340 343 343 344 345 346 341 339 338 337 338 340 345 349 346 348 346 345 346 344 346 346 345
342 342 345 343 344 343 343 342 342 343 346 349 347 347 343 342 342 343 344 346 341 341 338 338 338 344 348 350 349 347 346 345 346 345 344 345 344 345
343 343 342 342 342 343 342 344 343 346 344 344 347 344 343 340 339 339 340 341 342 340 340 343 344 346 345 345 346 345 345 344 345 345 345 346 346 344
344 343 343 343 343 342 343 343 344 342 343 343 345 348 342 340 339 339 342 340 340 342 345 345 344 341 341 340 340 340 340 340 341 343 345 345 344 345
344 344 344 344 344 344 343 343 342 340 340 340 340 342 341 344 339 343 341 340 342 340 345 345 340 337 336 338 340 340 337 337 338 339 342 342 342 342
342 343 343 344 344 341 341 342 339 340 341 340 340 341 341 340 340 340 340 343 345 341 344 341 338 334 336 336 336 334 331 330 334 337 336 335 337 339
341 343 344 342 342 341 341 340 340 339 340 341 341 340 340 339 339 338 338 341 344 341 341 343 336 337 334 335 334 333 332 327 324 331 334 335 336 338
340 343 341 339 339 337 336 335 338 340 340 340 340 339 339 337 335 335 336 337 338 338 339 338 335 332 336 330 331 331 331 329 317 319 325 330 331 333
337 337 336 339 338 338 336 338 339 337 336 336 335 334 333 332 332 333 333 336 339 338 334 332 329 326 327 330 328 328 314 309 308 308 308 311 316 321
339 340 340 340 340 339 338 336 334 334 334 334 332 331 329 328 328 329 329 332 334 330 329 326 319 313 320 319 321 313 306 306 306 306 306 306 306 306
337 338 339 339 338 338 337 336 334 334 331 328 327 326 326 325 323 320 318 319 319 317 315 311 309 307 306 309 309 305 305 305 305 305 305 305 305 305
334 334 334 334 334 334 333 330 326 320 318 320 321 319 317 316 315 314 312 311 310 308 307 306 305 305 304 308 309 305 304 304 304 304 305 305 305 305
324 326 327 325 324 322 320 317 316 317 318 318 318 317 315 312 310 308 306 305 305 305 304 304 304 304 303 303 306 303 302 303 303 303 303 303 303 303
311 310 310 311 312 312 314 315 317 318 318 317 316 314 312 309 306 305 304 304 303 303 302 302 302 302 302 302 302 302 301 302 302 302 302 302 302 302
313 308 307 308 310 312 313 316 317 317 316 315 313 311 307 305 304 303 303 302 302 301 301 301 301 301 301 301 304 301 301 302 301 301 302 302 302 302
315 313 308 309 313 315 316 316 315 314 311 308 307 305 304 303 302 302 301 301 301 300 300 300 300 302 302 302 300 300 301 301 301 302 302 303 303 303
307 310 308 310 313 314 314 312 310 309 308 306 304 303 302 301 300 300 300 300 300 300 300 300 300 301 304 304 302 299 299 300 300 301 301 301 302 302
305 306 311 309 313 312 311 310 308 306 305 304 303 302 300 300 299 299 299 299 299 299 300 299 299 299 301 301 302 302 300 300 300 300 300 300 300 300
303 304 305 309 312 311 310 308 306 304 303 302 301 300 299 299 298 298 298 298 299 301 301 301 298 299 300 301 303 302 302 300 299 298 299 298 298 299
304 305 308 311 311 309 308 307 305 303 302 301 299 298 298 297 298 298 298 300 300 300 300 300 299 300 301 301 301 302 302 302 300 299 299 298 297 296
306 309 312 311 309 308 307 304 303 302 300 299 298 297 297 297 297 297 299 299 299 300 299 300 300 300 301 301 300 301 301 301 301 300 300 299 297 295